ECMWFFLT1_sfc_temp_000.txt.gz
Temp
59 58 58 58 57 59 59 58 59 59 60 60 60 60 61 61 60 59 60 60 60 61 61 59 58 59 60 60 60 59 60 59 58 57 56 57 57 56 58 58 58 58 58 58 56 54 51 51 52 54 55 57 59 60 60 60 61 61 61 61 63 65 65
60 60 59 60 59 59 57 57 59 58 58 58 59 60 59 60 61 59 59 59 59 60 62 60 58 59 58 58 57 58 57 57 58 58 57 54 56 54 57 58 58 57 57 57 56 55 52 50 49 50 53 54 54 55 57 59 61 61 61 62 63 65 65
60 59 59 58 58 57 58 57 56 57 57 57 57 59 59 59 59 59 59 58 58 59 60 59 59 58 57 57 56 57 57 56 55 56 55 54 55 54 56 55 54 52 52 53 52 51 52 53 52 51 50 50 51 53 53 58 60 61 61 62 63 66 66
60 59 58 57 57 56 58 56 56 56 56 56 57 57 58 58 58 59 58 57 58 60 59 58 57 57 56 56 56 56 56 56 54 55 55 54 55 55 55 54 53 54 53 51 52 50 51 49 46 47 48 51 51 50 54 58 59 60 61 61 62 65 66
62 61 60 59 58 58 57 56 55 56 55 56 55 56 56 56 58 56 57 56 57 56 56 56 56 56 56 55 54 54 54 53 54 55 53 53 53 52 52 52 52 52 52 51 51 50 49 50 48 47 47 50 49 51 56 57 57 61 62 63 64 64 65
62 61 61 60 59 58 57 56 55 56 55 56 55 57 54 55 57 57 57 56 56 57 56 56 55 56 55 55 55 53 52 52 51 52 52 50 51 52 50 50 51 52 51 51 50 49 49 49 48 47 48 51 50 48 50 53 55 56 60 62 64 64 65
62 61 61 62 60 59 59 58 58 57 56 57 56 57 56 56 56 57 57 55 55 55 56 55 55 55 55 55 55 54 53 51 51 51 50 50 49 48 49 50 50 50 49 50 50 51 50 49 47 48 47 44 46 46 48 50 54 55 58 60 63 65 64
63 62 62 63 61 59 59 60 59 58 57 57 57 57 56 56 56 55 56 55 55 55 55 56 57 55 55 56 55 54 54 53 53 53 51 52 53 51 49 50 51 50 49 50 50 50 49 49 49 50 47 48 45 41 45 46 49 51 54 57 61 63 63
64 64 63 63 61 61 61 61 59 59 60 58 58 57 56 58 56 56 56 55 54 55 55 55 55 56 55 55 53 54 53 56 54 53 51 52 51 49 49 48 51 49 50 50 50 49 49 49 49 48 47 46 44 44 42 43 44 47 52 56 56 60 62
62 62 63 62 62 62 62 61 59 59 60 60 59 58 57 56 56 56 56 55 55 55 55 55 55 54 55 55 54 53 53 53 54 53 51 53 51 50 49 50 50 50 50 50 50 50 49 49 49 49 49 49 45 43 42 41 40 43 47 54 54 54 60
63 64 63 62 61 61 60 59 57 58 60 60 60 60 58 57 57 60 56 55 53 54 54 54 54 54 54 53 53 53 54 53 53 52 53 52 52 52 52 50 50 51 51 49 52 51 51 51 49 49 49 49 47 46 45 44 42 42 45 48 53 54 57
62 63 63 63 60 60 60 58 58 59 59 60 60 59 58 58 58 56 57 55 54 54 53 54 53 53 54 53 53 53 52 52 52 51 52 54 53 52 51 51 49 52 51 51 50 49 50 50 50 50 49 48 48 46 45 45 44 43 48 49 47 52 54
64 64 64 63 62 61 61 60 59 59 59 60 60 60 60 59 58 57 57 57 56 54 54 54 53 52 52 53 53 54 52 52 52 52 53 52 55 51 51 51 51 52 50 49 50 50 50 51 51 51 50 50 49 49 47 47 46 48 47 50 50 53 56
63 64 64 64 64 63 62 62 61 62 61 60 60 60 60 59 59 59 58 58 58 56 55 54 53 53 53 52 52 53 51 52 53 52 52 52 54 51 52 52 51 52 52 50 51 50 50 51 50 50 49 49 50 49 51 50 48 50 49 46 48 52 55
62 63 63 64 64 63 62 62 62 61 62 61 61 61 60 59 59 59 58 58 58 57 56 55 54 54 54 53 52 54 54 52 52 52 51 52 51 53 51 52 52 52 52 52 51 54 52 52 53 52 51 51 49 49 49 50 46 46 48 50 51 52 52
62 64 62 61 61 60 60 61 62 62 63 61 61 61 60 60 59 59 59 58 57 56 56 56 54 55 54 54 54 53 54 52 52 52 51 51 52 52 51 51 50 50 52 53 52 51 50 51 53 52 51 50 50 49 49 51 49 46 46 48 46 52 52
60 60 61 57 59 60 61 59 60 63 63 61 60 58 59 58 58 57 57 56 56 56 56 56 55 55 57 55 55 55 53 53 52 52 54 53 52 52 52 50 50 49 51 52 51 51 48 49 49 49 49 50 48 49 48 47 48 49 45 46 44 50 52
60 58 59 56 58 59 63 61 61 60 60 60 59 59 57 58 58 58 58 57 57 56 57 57 57 57 57 56 57 56 55 54 53 53 53 53 54 53 52 52 51 50 50 51 50 51 48 47 50 49 48 48 49 48 48 47 47 46 45 45 45 44 48
58 56 57 57 56 57 57 58 59 58 59 58 57 58 58 58 59 58 57 58 59 59 59 60 59 59 59 58 57 57 56 55 55 55 53 53 54 53 53 53 51 50 50 51 50 48 47 47 47 47 46 47 48 47 46 46 46 45 45 44 44 45 44
54 56 58 58 58 57 58 57 58 56 55 55 56 55 56 57 57 57 57 57 58 58 59 59 58 58 58 58 57 56 56 56 56 55 54 54 54 53 53 53 52 51 51 51 49 48 46 46 47 45 47 46 47 45 45 44 45 45 43 44 42 43 44
56 57 57 58 59 59 58 58 57 57 56 55 57 57 56 56 56 57 58 59 60 59 57 56 57 58 58 58 58 57 57 56 56 56 55 54 54 54 53 53 53 52 53 51 50 48 47 48 47 47 45 45 44 45 43 43 43 42 43 42 42 41 41
56 57 58 58 56 57 57 57 57 57 56 56 58 57 58 58 57 56 56 56 56 57 57 57 59 59 58 59 59 58 58 58 58 57 55 54 53 53 53 53 52 51 53 53 51 50 50 50 50 49 47 45 43 43 44 40 40 41 41 41 42 41 41
56 56 57 58 58 58 57 58 58 57 57 57 58 57 56 57 57 59 58 54 55 55 56 58 58 55 55 59 58 60 59 58 58 58 57 55 53 53 53 53 54 55 53 52 49 47 46 48 50 50 48 48 46 44 43 44 42 40 41 41 40 40 42
56 56 57 58 57 57 58 58 56 56 57 56 56 56 56 56 55 54 54 54 54 55 56 59 53 49 47 48 56 57 57 57 57 57 57 56 54 53 52 52 52 53 52 51 49 46 46 45 45 45 46 47 47 45 42 43 41 41 44 41 40 40 39
54 54 55 54 55 56 54 54 54 54 54 55 55 55 54 54 52 53 53 53 53 53 54 49 42 43 44 44 46 54 57 57 56 56 58 57 55 54 53 51 51 52 51 50 49 48 47 45 44 43 43 44 43 44 44 45 44 43 40 41 39 40 39
53 54 54 53 52 52 51 52 54 54 55 53 52 55 53 53 53 51 53 52 53 50 50 41 42 45 46 45 44 46 54 56 56 56 55 53 54 54 54 51 50 51 52 53 52 48 48 46 44 43 44 44 43 42 41 41 43 46 41 41 40 39 39
52 51 51 51 51 51 51 51 51 51 51 50 51 51 51 51 50 51 51 52 47 45 45 44 41 43 45 46 45 45 52 54 55 53 53 54 54 53 53 52 51 50 49 50 48 47 46 45 44 43 42 41 42 44 42 41 39 40 43 43 41 41 40
50 50 49 49 49 48 48 48 49 47 48 49 49 50 49 49 49 47 46 45 44 44 44 42 41 41 42 43 43 46 52 52 51 52 51 51 51 51 51 52 50 50 48 47 48 47 45 45 44 44 41 42 43 44 42 41 41 40 40 40 39 40 40
49 48 48 47 48 47 46 47 50 49 45 45 47 49 48 47 47 45 44 42 41 41 41 42 41 42 42 42 44 47 46 46 47 47 47 48 49 49 49 49 48 48 47 48 48 45 46 45 44 43 43 42 43 42 41 43 43 42 42 40 40 40 40
50 48 48 49 48 49 50 52 50 48 50 44 45 45 47 44 45 45 44 41 41 39 41 42 41 42 42 43 45 46 46 47 46 47 46 47 47 48 48 48 48 47 47 44 40 40 44 47 46 44 41 40 41 41 40 41 42 41 41 41 41 42 41
49 48 47 49 48 47 45 47 48 47 52 49 47 45 44 44 45 45 44 41 43 42 40 42 41 41 42 43 45 45 44 45 44 44 44 45 46 45 46 51 49 44 43 43 39 40 40 43 42 40 38 37 38 39 39 37 40 40 41 42 41 40 41
49 48 48 47 45 45 46 47 49 45 46 45 46 43 43 43 43 42 42 42 47 43 39 42 41 41 42 43 44 43 44 44 43 42 44 44 43 42 43 44 45 44 44 41 39 40 40 42 41 39 38 40 40 39 38 35 35 36 37 38 38 39 39
47 48 49 46 45 47 45 45 48 47 42 43 42 41 42 42 42 40 41 41 42 40 41 39 40 41 41 42 43 44 43 44 42 41 42 44 42 42 42 42 42 39 39 39 39 39 39 41 42 40 41 40 40 37 34 35 38 36 35 35 34 35 36
47 47 45 46 46 46 45 47 44 49 46 41 41 41 41 40 41 39 39 39 38 39 40 39 39 40 41 41 41 42 40 41 41 41 41 41 40 40 41 40 40 40 39 39 38 38 39 39 41 41 39 37 35 37 38 35 36 40 34 35 36 35 36
50 51 46 45 46 47 45 46 46 45 40 40 41 41 39 39 39 38 38 38 37 37 41 42 37 40 40 41 40 42 42 41 42 42 41 40 39 38 38 37 38 39 39 39 39 39 39 38 39 41 36 37 37 37 35 37 34 34 33 33 32 32 33
48 49 47 47 49 48 43 45 46 44 40 40 40 40 38 38 38 37 37 36 35 36 36 40 41 39 40 40 40 41 41 40 41 42 41 40 39 38 39 40 41 40 37 38 39 39 39 38 39 38 37 37 36 36 37 34 34 32 31 32 32 32 32
47 46 45 43 45 46 44 43 43 44 41 41 39 38 36 38 37 37 36 35 35 36 36 35 40 40 39 39 40 39 38 38 39 41 41 38 39 40 40 40 40 38 37 37 38 38 38 38 36 36 36 36 36 37 35 34 32 32 32 31 31 31 32

ECMWFFLT1_sfc_temp_003.txt.gz
Temp
58 57 56 55 54 56 56 56 57 56 56 57 58 57 58 59 58 57 57 57 58 58 59 56 55 56 58 57 57 57 58 58 58 58 57 58 57 56 58 57 58 58 58 58 55 54 50 48 50 53 52 54 55 56 57 58 59 59 58 59 59 60 62
58 58 57 57 56 55 56 55 56 55 56 56 57 57 57 59 59 58 57 57 58 58 59 57 56 56 56 56 56 57 56 56 57 57 58 57 56 56 58 58 57 54 53 53 53 53 50 47 47 47 49 51 50 52 55 57 58 58 59 59 61 62 61
58 56 55 55 55 55 55 54 54 55 55 55 56 56 57 57 57 58 58 57 57 58 58 56 56 55 55 55 55 55 55 54 54 55 56 54 55 54 55 55 52 51 51 52 51 50 51 51 51 49 46 47 49 51 51 57 58 59 61 61 62 63 63
56 56 56 54 54 54 55 54 54 54 54 55 55 55 55 56 56 57 56 56 57 58 57 55 55 55 54 54 54 55 54 54 53 54 54 53 53 53 53 52 51 52 53 50 51 49 49 47 46 45 43 46 49 48 53 54 56 59 61 60 61 61 62
58 57 57 56 55 55 53 53 53 53 53 53 53 54 53 54 56 54 55 55 55 54 54 54 54 54 54 53 53 53 52 52 53 53 52 52 52 51 50 49 49 50 50 50 49 48 50 48 47 46 45 45 45 46 51 52 52 57 58 59 61 61 61
59 58 57 56 55 55 53 52 52 54 52 54 53 55 52 54 56 55 55 54 55 55 53 53 52 52 52 52 52 51 50 50 50 51 51 48 50 51 48 47 49 50 49 48 49 49 47 47 48 46 46 47 48 44 44 49 52 52 56 58 60 61 61
60 60 59 58 56 55 54 54 53 53 53 54 53 54 54 53 54 55 55 53 53 52 53 52 52 52 52 53 52 51 50 49 50 50 49 49 48 48 48 49 49 49 47 49 49 49 48 47 45 46 46 42 42 43 43 46 49 52 54 56 58 60 61
59 60 59 59 57 55 54 55 54 53 53 54 54 54 52 53 53 53 53 53 53 53 53 53 55 53 53 54 53 51 51 50 51 51 50 51 51 48 47 48 49 49 47 47 48 49 50 50 49 48 47 48 43 39 43 42 44 48 51 52 55 58 60
61 61 60 58 57 57 56 56 55 53 54 53 53 54 53 55 54 54 54 53 52 53 53 53 53 53 52 53 51 52 52 53 52 51 50 50 49 48 48 46 49 48 48 47 49 48 48 49 49 46 46 45 44 42 40 41 41 43 46 53 50 53 59
61 61 60 59 58 56 56 55 55 54 54 53 55 54 54 53 55 55 54 53 53 53 53 53 53 52 52 53 53 51 52 50 53 51 50 51 48 48 48 49 49 48 49 48 48 49 48 47 48 47 47 47 44 42 42 41 40 41 43 49 52 50 55
62 62 61 60 59 57 55 55 54 55 55 54 54 56 55 54 55 58 54 54 53 53 54 53 53 53 52 52 53 52 52 51 52 50 50 50 49 49 49 49 49 50 49 48 49 49 47 48 47 48 47 46 46 46 42 43 41 40 43 44 48 52 53
61 62 62 62 60 59 57 55 56 56 54 54 55 55 53 53 54 54 55 53 54 54 53 53 53 52 53 52 52 52 51 52 52 51 49 51 50 51 49 49 48 50 48 48 47 47 48 48 47 47 46 47 47 44 43 43 43 42 45 48 45 47 50
62 62 62 61 60 60 59 57 56 55 56 56 54 54 53 54 54 53 54 54 54 53 53 53 53 52 52 54 53 53 51 51 52 52 50 50 53 50 49 49 50 50 48 47 49 49 48 48 48 47 47 47 46 44 43 44 46 46 45 46 48 50 51
62 63 62 62 61 61 60 59 58 58 56 56 55 55 54 54 53 54 53 54 54 53 53 53 52 52 53 52 52 53 51 52 53 51 52 50 51 50 50 50 49 50 47 48 48 49 50 49 49 49 48 47 47 46 47 46 46 47 46 45 45 49 52
62 62 62 61 62 61 60 60 59 57 57 58 56 57 56 55 54 54 54 54 53 53 54 55 52 53 54 53 52 53 53 52 52 51 51 52 50 52 50 50 50 48 48 48 48 49 50 51 51 51 49 50 48 49 47 50 45 45 47 47 47 49 50
61 60 60 59 60 59 58 58 60 59 58 57 57 58 57 56 56 54 54 55 54 53 53 53 52 53 53 53 53 51 52 52 52 52 51 52 52 50 49 50 50 48 49 48 47 47 48 50 50 50 48 48 49 47 47 47 48 46 45 46 44 50 49
58 57 56 57 57 55 57 56 58 58 57 56 56 55 55 56 55 54 55 54 54 55 55 54 53 53 54 54 54 53 51 51 52 52 53 52 51 51 51 50 49 48 49 49 47 46 47 48 48 49 48 47 47 47 46 46 47 46 44 45 44 47 48
58 59 58 56 55 55 55 56 58 57 55 55 56 57 56 56 54 55 56 56 56 55 56 55 55 54 53 53 54 54 53 52 52 52 53 53 54 52 51 52 51 48 49 50 47 47 46 47 48 47 47 46 46 46 46 46 44 45 45 45 44 41 44
58 59 58 55 55 56 56 56 56 55 56 56 55 55 55 55 56 55 56 57 56 57 56 56 56 55 54 54 55 54 53 53 53 53 52 52 53 52 52 52 51 49 50 51 50 47 46 46 45 46 46 46 46 45 44 43 43 43 44 43 43 43 42
56 57 55 55 56 57 57 57 57 55 55 56 56 55 55 55 55 55 55 55 56 57 56 55 54 53 54 54 53 52 52 51 52 52 52 53 53 53 53 53 51 50 51 51 50 49 47 45 46 45 45 45 45 44 44 43 44 44 42 43 40 40 41
55 55 56 56 56 55 56 56 56 55 56 57 56 56 56 56 56 56 57 57 58 57 56 55 54 53 53 53 52 52 51 51 51 51 51 51 51 52 53 53 52 51 52 52 52 49 49 47 45 45 44 44 44 44 43 43 42 42 42 41 40 39 39
55 56 56 56 56 56 56 56 56 56 56 56 57 56 57 58 57 57 57 56 57 57 56 55 55 54 53 53 53 53 53 54 54 54 53 52 51 51 51 52 52 52 53 54 52 51 50 49 47 46 44 43 43 43 41 42 41 41 40 41 41 39 39
56 56 57 56 57 57 57 56 57 56 56 57 56 57 57 58 58 58 58 57 55 54 54 54 54 51 51 53 52 54 54 52 52 53 53 53 52 52 52 52 53 54 53 53 50 47 46 47 50 49 46 43 44 43 41 40 40 40 41 41 40 39 40
57 57 57 56 56 57 57 56 55 55 55 55 56 56 56 57 56 57 56 54 53 54 53 52 42 45 47 46 49 51 53 53 52 53 53 53 53 53 51 51 50 52 52 51 49 46 45 45 45 45 46 47 47 45 42 41 39 38 43 41 39 40 40
55 56 55 55 55 56 55 55 55 55 54 54 55 55 54 55 55 54 55 53 51 50 49 44 42 45 45 45 46 50 51 52 53 52 53 53 54 53 52 49 49 51 51 51 49 47 47 45 44 43 43 43 43 44 45 44 41 39 38 40 39 39 38
53 53 52 53 55 54 54 54 54 54 54 55 55 53 54 55 55 54 54 52 51 47 47 45 41 42 43 43 43 45 50 52 53 53 53 52 52 51 50 50 49 49 51 53 51 47 48 47 45 44 43 43 43 42 41 42 43 46 41 40 40 38 38
51 51 51 51 52 53 53 53 53 54 54 53 54 54 54 54 53 52 52 49 45 43 44 44 42 43 43 43 42 44 47 48 49 49 50 50 49 49 49 49 48 47 47 48 48 49 49 49 46 46 45 44 44 44 41 40 40 41 42 42 40 40 39
50 49 48 48 49 50 50 47 49 48 50 51 52 52 52 51 51 50 47 44 43 41 43 42 42 42 41 41 41 43 43 45 44 43 44 46 46 46 46 47 47 47 46 47 48 48 48 47 45 44 44 44 42 39 39 39 40 39 39 39 39 39 39
47 46 47 47 48 48 47 48 48 46 46 45 45 45 45 47 46 44 42 41 42 42 43 42 41 41 41 42 42 44 43 43 42 43 44 44 44 45 46 47 47 46 45 45 46 43 45 45 43 43 44 42 41 40 41 42 41 41 41 39 37 38 38
47 46 46 48 46 47 47 46 45 43 45 43 44 45 44 42 44 43 41 40 41 41 42 42 41 41 41 41 43 43 42 43 43 43 42 43 43 43 44 45 45 44 43 41 41 41 42 44 45 44 41 40 41 41 40 42 40 39 40 40 40 41 41
47 46 46 47 46 44 44 43 45 44 47 45 46 43 41 43 41 41 42 40 41 42 40 42 42 41 42 42 43 43 41 42 41 41 40 39 39 40 45 50 46 42 41 40 38 39 40 44 44 43 42 42 41 39 40 40 41 40 41 41 40 40 40
46 47 48 47 45 45 45 47 43 42 44 44 42 40 43 42 40 39 39 40 47 41 39 40 41 41 41 42 43 41 42 41 41 38 39 39 39 39 40 43 45 44 42 40 39 40 40 43 44 43 42 42 40 40 40 39 38 35 34 35 33 35 36
48 47 48 46 46 47 45 44 42 43 40 42 41 41 40 41 40 38 38 37 38 37 38 38 38 40 41 41 42 42 41 42 40 38 39 41 40 39 39 40 41 39 39 40 39 39 40 41 44 42 42 40 40 42 39 37 38 35 33 33 32 33 34
46 47 47 46 45 46 44 45 43 44 42 41 41 40 39 39 39 36 36 36 36 37 39 37 38 39 40 40 40 41 38 40 39 39 38 37 38 38 39 38 39 40 39 39 39 39 39 39 40 41 40 40 39 39 36 33 35 39 33 34 33 33 34
49 49 46 45 46 46 44 44 44 42 40 40 40 39 37 38 37 36 35 35 35 36 40 41 37 39 39 40 40 40 40 38 38 39 37 36 36 37 37 36 37 38 38 38 38 38 38 38 39 42 39 37 36 36 36 36 34 33 32 32 31 31 32
49 50 47 47 47 46 43 45 43 42 41 39 39 38 37 37 37 35 34 34 34 34 35 39 40 38 39 39 39 39 39 38 39 39 38 36 35 36 35 35 37 38 37 38 38 38 38 38 38 38 36 36 36 36 36 34 33 32 31 31 32 32 31
47 47 46 45 46 45 43 43 43 43 40 40 38 37 35 37 36 36 35 34 35 35 34 34 38 39 38 38 38 38 38 38 39 39 38 35 36 35 35 36 38 36 37 37 37 37 36 37 35 36 36 36 36 37 34 33 31 31 31 31 30 30 31

ECMWFFLT1_sfc_temp_006.txt.gz
Temp
56 55 54 54 54 55 55 54 55 54 55 56 56 57 57 58 58 57 58 58 58 59 60 58 58 58 58 59 60 58 58 59 59 59 58 59 58 57 58 58 58 57 58 57 56 56 52 52 53 55 55 54 57 58 60 60 61 61 60 61 63 63 62
56 56 55 56 55 55 54 53 54 54 55 55 56 56 57 58 59 57 57 57 57 58 59 57 57 57 57 57 58 58 58 57 59 59 60 58 58 57 57 56 55 55 54 54 55 55 53 49 50 50 54 54 55 57 58 59 60 61 61 61 63 63 62
56 54 54 54 54 53 53 52 53 53 55 54 55 55 56 56 56 57 56 56 56 58 58 56 55 55 55 55 56 56 56 56 56 58 58 57 58 57 58 56 54 53 54 55 53 52 53 53 53 54 51 51 54 56 55 57 59 60 62 62 62 64 63
55 55 54 53 53 54 54 52 53 53 53 54 54 55 54 55 56 57 55 56 57 58 56 55 55 55 54 55 55 55 55 55 55 55 54 55 55 54 54 55 54 54 55 53 54 52 52 51 50 51 48 50 53 55 57 56 58 60 63 62 62 62 62
56 56 55 54 53 54 52 52 52 53 53 53 53 54 55 55 56 55 56 55 55 54 54 54 54 55 54 54 54 54 54 54 55 55 54 53 53 52 52 52 52 53 53 54 52 51 53 52 50 50 50 49 51 52 54 55 56 59 60 62 63 62 62
57 57 56 54 53 54 52 52 53 53 53 54 53 54 54 53 55 54 54 54 54 54 53 53 53 53 53 53 53 52 52 53 53 53 53 52 53 53 52 51 52 53 53 51 51 51 50 49 50 50 50 49 52 51 53 53 56 56 59 60 62 63 62
57 57 56 56 54 54 53 53 53 53 53 54 53 54 53 53 54 55 54 53 53 52 53 52 52 53 53 53 53 52 52 51 51 52 51 50 50 50 51 52 52 52 50 50 50 50 49 50 49 51 49 47 46 49 49 52 53 58 60 60 61 63 62
57 57 57 57 55 54 53 53 52 52 53 53 53 54 53 53 52 52 53 52 52 52 53 53 54 53 53 53 53 51 51 51 51 51 50 51 50 50 50 51 51 50 50 50 52 52 52 52 52 51 48 51 50 47 50 49 50 55 54 59 59 62 61
59 59 59 58 56 54 53 54 53 52 53 53 53 53 53 53 52 53 53 52 52 52 52 53 53 53 53 53 52 52 52 54 51 51 50 50 50 50 50 50 52 51 51 51 52 51 52 52 51 49 50 50 50 50 47 50 50 53 51 58 58 60 60
57 57 58 58 56 55 54 53 53 52 51 52 53 53 52 53 53 53 53 52 52 52 52 53 53 52 53 54 53 52 53 52 53 52 51 52 50 50 51 52 53 52 51 52 52 52 51 51 51 51 53 54 51 50 48 48 49 49 55 53 56 59 60
58 59 59 59 57 55 53 53 52 53 53 53 54 55 53 53 53 56 52 52 52 53 53 52 52 52 53 53 53 53 53 52 53 52 52 52 51 51 52 52 53 53 51 52 52 51 51 52 52 53 52 51 53 53 48 49 50 47 52 52 53 56 59
58 59 59 59 57 56 54 53 54 54 53 54 56 54 53 53 53 53 53 52 53 53 52 52 52 52 53 52 53 52 52 53 53 52 52 53 52 53 52 52 51 52 51 51 51 51 51 51 52 51 51 51 51 52 51 49 51 51 50 54 54 54 55
60 58 59 59 58 57 57 55 54 54 54 55 54 53 53 53 53 53 53 53 53 53 53 52 52 52 52 53 53 53 52 52 53 53 52 53 53 52 52 52 52 53 51 52 52 52 52 52 51 52 52 52 51 50 51 50 50 52 51 53 54 55 55
59 59 59 59 59 58 57 57 56 57 55 55 54 54 54 53 53 53 53 54 53 53 53 52 52 52 53 52 52 53 51 53 53 53 53 52 53 52 53 54 52 52 50 52 52 51 52 52 52 51 51 52 52 51 52 51 51 50 51 50 51 53 54
60 60 59 59 59 58 57 57 57 57 58 57 56 56 55 54 54 53 53 53 53 53 53 53 52 52 53 52 53 54 52 52 53 52 52 53 52 53 52 53 53 52 50 52 51 54 54 53 53 53 52 52 52 52 52 52 51 51 50 51 51 53 53
59 59 58 58 58 58 57 57 57 57 58 58 56 56 55 54 54 53 54 54 53 53 54 53 52 53 52 53 53 53 53 52 52 52 53 53 53 52 52 53 53 52 51 51 51 52 52 53 53 54 52 52 52 51 52 53 51 50 50 51 49 52 51
58 58 57 57 57 56 56 56 57 57 57 57 56 54 54 54 54 53 53 53 53 54 54 53 53 53 54 53 54 53 53 53 52 53 54 53 53 52 53 52 52 51 52 51 51 51 51 51 51 52 51 50 51 50 50 50 52 51 49 49 49 51 51
57 56 56 56 56 56 56 56 56 56 56 56 55 55 54 54 53 53 53 54 54 54 55 56 55 54 53 53 54 54 53 53 53 53 53 53 54 53 53 54 54 52 52 52 50 51 51 51 51 51 51 50 50 50 49 49 49 50 49 48 49 48 48
56 56 56 56 56 57 57 57 56 55 56 55 55 55 55 55 55 54 54 54 55 56 57 56 55 55 55 54 54 53 53 53 53 53 53 53 53 53 54 54 53 52 53 53 52 51 50 50 49 50 50 50 50 48 48 48 48 48 49 48 48 48 48
55 55 55 55 55 56 57 56 56 55 56 56 56 55 55 55 54 55 56 56 57 57 56 56 56 55 55 54 54 54 53 53 53 53 53 53 53 53 53 54 53 52 53 54 53 52 50 49 49 49 49 48 49 48 48 48 48 47 48 48 46 46 47
54 55 55 55 54 55 55 55 55 55 56 57 56 57 56 56 55 56 56 56 57 57 56 56 55 54 54 55 54 54 53 53 54 53 53 53 53 53 54 54 54 53 54 54 54 53 52 50 49 49 48 48 47 47 47 46 46 47 47 46 46 47 45
55 56 56 55 55 55 55 55 55 55 55 55 55 56 57 57 56 56 56 56 57 56 55 55 57 56 56 56 54 54 54 54 53 54 54 53 53 53 53 53 54 54 54 54 52 52 51 51 51 51 48 48 47 47 46 46 46 46 45 47 47 45 46
55 55 55 55 55 56 56 56 56 56 56 56 56 56 55 56 57 57 56 56 56 55 55 54 53 49 51 56 54 55 54 54 54 54 54 54 54 53 54 54 54 53 52 52 50 47 47 48 51 54 51 49 49 48 48 47 47 47 48 48 48 47 48
55 55 55 56 55 56 56 56 55 55 55 55 55 55 56 57 56 56 57 56 56 55 54 54 47 44 44 46 53 53 54 54 54 54 54 54 55 55 54 54 54 53 53 51 52 46 45 45 46 47 47 49 50 51 48 48 47 46 49 48 46 45 46
53 54 54 54 54 55 55 55 55 55 54 54 54 55 55 56 56 56 56 55 54 53 52 49 43 43 44 44 46 52 52 53 53 53 53 53 54 54 54 54 53 53 53 53 53 50 47 44 44 44 43 44 43 44 46 49 48 46 46 48 45 46 45
51 53 54 54 54 53 53 53 53 53 54 54 54 54 55 55 55 54 54 54 53 51 51 45 41 42 42 42 42 45 50 51 51 51 52 52 52 53 52 52 52 51 52 52 52 50 50 48 44 42 43 43 42 41 40 40 44 50 48 48 47 45 44
50 53 55 55 53 52 53 53 52 53 53 53 53 53 53 53 53 52 53 52 52 49 49 45 43 43 44 44 43 43 48 48 48 49 49 50 50 51 50 51 51 50 49 51 49 49 50 49 49 49 49 48 48 44 41 40 39 40 44 47 46 46 44
50 50 50 50 51 51 51 49 51 52 52 52 52 52 51 51 51 51 50 49 48 48 49 44 42 42 41 40 40 42 45 45 45 45 45 45 46 48 48 48 49 49 47 47 49 48 49 49 48 46 46 46 46 45 45 45 46 45 45 44 45 45 44
47 48 47 47 49 50 49 49 50 48 48 48 49 50 49 50 49 48 47 46 47 47 46 42 40 41 40 40 42 45 45 44 44 44 44 44 44 45 46 47 47 46 47 46 45 43 45 47 47 46 45 44 43 43 43 42 41 43 45 45 45 45 45
45 45 46 47 47 47 47 46 46 46 48 47 48 48 49 47 48 47 44 45 47 45 43 43 41 41 40 40 43 44 44 44 43 42 41 41 42 44 47 47 46 45 44 44 42 40 41 44 47 47 46 44 43 43 43 44 41 39 39 39 39 39 39
45 46 45 46 46 45 45 45 46 47 48 46 47 46 44 43 42 44 45 44 45 44 42 41 41 41 41 41 43 45 44 44 41 41 41 40 41 42 46 47 45 43 43 43 39 39 41 45 46 46 45 44 43 43 42 42 43 41 40 39 38 39 39
46 46 47 48 47 46 47 48 45 45 46 46 44 42 44 43 41 40 41 42 46 42 41 42 40 40 40 41 43 43 44 44 43 41 41 41 41 41 43 44 44 44 44 41 38 39 40 44 46 46 45 45 44 42 42 42 42 41 41 41 40 41 40
47 49 48 47 46 47 46 45 45 46 44 45 43 42 43 43 41 39 40 41 42 41 42 41 41 39 40 40 41 44 44 45 43 41 41 43 43 42 42 43 42 39 39 38 38 38 39 41 45 44 45 44 43 41 41 41 41 39 39 39 39 38 38
47 46 46 45 45 45 45 46 44 45 43 43 43 42 41 40 40 38 38 39 40 40 41 41 40 39 40 40 40 41 42 42 42 41 40 40 41 41 41 41 42 40 38 39 39 38 39 39 41 44 43 42 42 42 39 39 39 38 39 39 38 38 39
48 47 46 47 46 44 43 44 45 45 44 44 43 41 40 40 39 38 37 38 39 39 42 42 40 39 39 39 39 40 42 41 41 41 39 39 39 40 40 41 41 39 38 38 38 38 38 39 39 42 40 37 36 36 40 39 39 38 38 38 38 38 38
49 49 47 48 47 44 43 44 44 44 44 43 43 41 39 39 40 39 38 37 36 37 37 41 40 40 39 39 39 39 39 40 38 41 41 39 40 39 40 40 40 39 37 37 38 38 38 37 38 39 36 35 35 36 37 39 38 38 38 37 37 37 37
47 46 47 46 45 45 44 44 44 44 44 44 43 41 39 39 40 40 39 38 38 37 36 37 39 39 39 38 38 38 38 37 38 40 41 40 39 39 39 39 39 37 37 37 37 37 36 37 38 36 36 36 35 36 38 38 37 37 36 36 36 36 37

ECMWFFLT1_sfc_temp_012.txt.gz
Temp
75 73 74 75 77 77 77 77 78 77 79 79 78 79 78 77 77 77 77 77 78 79 79 78 76 77 77 77 76 77 76 76 74 72 70 72 70 70 72 72 72 74 76 72 74 71 69 64 66 73 74 72 73 73 75 75 75 74 73 76 78 78 77
75 74 76 76 76 76 75 76 77 78 77 78 79 78 78 78 78 77 77 77 77 78 80 79 77 77 75 74 74 74 74 74 73 72 72 72 73 71 71 71 73 75 75 75 74 76 71 67 67 67 67 71 71 72 73 75 76 75 76 77 78 79 77
75 75 76 74 74 75 74 74 75 76 77 76 77 78 78 79 78 78 77 76 76 77 77 77 77 75 74 74 74 74 73 72 73 72 71 73 74 73 74 73 73 73 74 74 74 75 75 74 68 68 68 67 66 69 73 74 75 77 78 77 77 80 78
73 74 73 73 74 74 73 74 75 75 77 76 76 76 76 77 76 77 76 77 76 76 76 77 76 77 75 74 74 74 73 72 72 72 72 72 74 74 76 76 74 74 72 71 72 74 74 71 70 70 71 73 69 66 70 74 76 79 80 78 77 78 78
74 73 73 72 74 74 74 73 75 75 75 76 75 76 75 76 76 75 76 76 76 76 75 76 76 76 76 76 75 74 73 73 72 72 72 72 73 75 75 76 76 76 75 75 77 76 74 73 72 70 72 73 74 74 75 73 78 77 78 79 80 78 78
74 75 74 74 74 74 74 74 74 74 75 74 75 74 74 75 76 75 75 75 75 75 75 76 75 76 76 75 75 74 74 73 74 73 73 73 73 74 75 76 78 77 76 77 77 76 76 76 74 71 75 76 70 71 74 75 74 78 79 79 80 79 80
74 74 75 74 75 75 75 74 75 75 75 74 74 73 75 76 76 75 75 74 75 75 75 75 75 76 76 76 75 74 73 74 74 73 73 73 74 74 75 76 76 76 75 76 76 76 75 74 74 72 71 72 72 73 75 76 77 75 75 79 79 79 77
73 74 75 75 74 74 75 74 75 75 75 75 74 74 75 74 74 74 74 74 74 74 74 74 75 75 75 77 75 74 75 75 75 74 74 73 73 73 73 74 74 75 75 77 77 77 78 76 75 74 72 67 68 71 71 75 75 73 73 75 78 77 76
74 74 73 73 73 73 73 74 74 75 75 75 74 74 74 74 74 74 75 74 74 74 74 75 75 76 75 75 75 74 73 76 73 73 73 73 72 71 72 74 75 74 75 77 77 77 78 78 76 75 74 72 68 65 69 69 71 71 75 73 75 77 76
73 72 72 71 71 71 72 72 74 74 74 75 74 74 73 74 74 74 74 73 73 74 74 74 74 74 74 74 74 73 72 74 74 73 73 73 72 73 73 72 74 74 74 74 75 75 75 76 77 77 78 75 74 69 66 65 66 67 71 75 73 73 76
72 71 71 71 71 70 68 69 71 73 74 74 74 74 74 73 73 74 74 73 73 73 73 74 75 74 74 74 73 73 73 73 72 73 73 73 72 73 73 74 75 75 75 75 74 74 74 75 76 77 77 77 77 73 71 67 65 69 69 71 74 73 75
73 73 73 73 71 69 67 65 66 70 72 75 75 74 74 74 74 74 74 74 73 73 73 73 74 74 74 73 73 73 72 73 73 72 72 72 72 72 72 71 73 73 73 73 73 74 74 75 76 77 76 76 75 74 72 70 65 66 71 67 70 74 73
73 74 74 73 70 69 68 67 67 68 71 74 74 74 75 75 75 74 74 74 74 74 74 74 74 74 74 73 73 74 73 73 73 72 73 73 75 73 72 72 72 73 73 74 74 74 74 74 76 76 76 75 74 73 74 72 67 64 69 70 70 72 73
72 74 73 72 71 71 69 68 69 71 72 72 74 74 75 76 76 75 76 75 75 74 73 73 74 74 74 73 74 73 74 75 74 74 73 72 74 73 74 73 73 72 73 73 74 74 75 75 75 75 75 75 74 74 73 70 67 65 67 70 71 72 72
73 75 73 72 71 71 72 70 70 72 72 73 75 76 76 75 76 76 76 76 76 76 75 75 74 74 74 72 72 73 73 74 74 73 72 73 73 73 72 73 73 73 74 74 73 77 77 76 77 77 76 75 75 73 74 73 70 67 64 67 69 73 71
73 74 73 73 72 73 73 72 73 71 72 73 74 75 76 75 75 76 75 75 76 75 75 74 74 73 73 73 73 72 73 73 72 72 72 72 75 74 72 72 72 72 72 71 72 74 74 75 78 77 74 76 73 73 75 76 72 68 66 66 69 70 70
73 73 73 74 73 72 74 74 74 73 74 73 73 73 74 75 74 73 73 74 74 73 73 72 73 74 73 73 73 73 73 72 73 73 73 74 76 74 73 72 72 72 72 70 72 73 74 74 74 75 73 73 72 72 72 72 73 71 69 66 68 73 71
73 73 73 74 73 73 73 74 74 75 74 74 75 74 74 75 74 74 72 74 74 73 73 74 73 73 72 72 72 72 72 73 72 73 73 73 70 74 73 72 73 73 72 71 71 72 73 71 75 74 73 75 74 73 72 73 73 73 70 68 67 70 71
72 73 73 73 72 73 73 74 74 74 76 75 74 74 74 75 76 76 76 76 76 76 76 75 75 75 74 73 73 73 73 73 73 74 74 73 74 74 73 73 73 74 73 71 71 72 72 71 73 72 73 74 76 73 71 71 72 71 71 70 68 67 69
73 72 73 73 74 74 74 74 74 75 75 75 74 74 75 75 75 76 77 76 76 75 75 75 73 73 74 74 73 73 72 72 73 73 74 74 75 75 74 75 74 74 73 73 72 71 71 71 70 70 71 70 74 72 69 71 73 71 70 69 70 69 68
73 73 73 74 74 73 74 74 74 75 75 74 74 75 75 74 75 76 75 76 75 74 73 73 73 73 74 72 72 72 72 72 72 73 72 74 74 74 74 74 75 75 74 74 73 73 72 70 70 70 71 71 71 69 69 69 69 70 69 69 69 69 71
73 73 73 73 72 72 72 73 73 74 74 74 73 75 75 75 74 75 75 73 71 70 70 69 69 70 71 71 71 70 69 71 71 72 73 74 74 74 74 73 74 75 74 67 58 58 58 59 71 70 71 71 69 68 68 70 69 69 69 68 68 69 69
73 73 73 73 73 71 70 71 72 72 73 74 74 74 74 74 74 73 73 72 71 68 67 66 57 51 55 66 65 66 65 67 69 69 69 68 70 74 73 74 74 64 59 57 56 52 50 50 51 63 70 71 68 67 68 68 68 69 68 67 67 67 66
74 73 73 73 72 72 72 71 71 71 71 72 72 72 72 72 72 72 72 72 70 68 65 64 47 46 46 48 59 63 64 64 65 66 67 69 70 72 73 75 75 64 61 58 60 48 47 47 48 47 45 47 55 67 69 66 67 68 68 67 67 67 65
73 73 73 73 73 72 71 72 72 72 71 70 70 71 70 71 71 71 71 72 70 68 66 54 45 46 46 45 50 63 64 63 62 63 65 68 70 71 72 72 72 72 72 69 71 67 55 45 44 45 46 48 42 38 42 60 66 67 66 66 66 66 65
72 72 72 72 72 72 72 72 72 71 70 69 68 67 69 69 68 68 69 70 69 69 69 51 45 46 45 44 44 55 68 67 66 66 67 68 69 69 69 69 71 70 71 54 63 70 71 65 45 42 44 42 41 42 42 39 43 58 66 66 64 64 64
71 71 71 71 70 70 69 70 71 71 70 69 68 68 68 67 67 68 67 68 67 69 69 52 46 46 45 44 42 50 70 68 68 69 68 67 67 67 66 67 68 68 68 68 68 68 69 68 62 60 59 61 62 50 43 45 46 47 56 64 64 63 64
70 72 72 71 70 70 68 68 69 70 69 68 68 68 67 66 66 67 68 68 68 68 70 46 44 44 45 44 40 47 68 68 69 69 68 67 67 66 66 66 66 66 65 64 60 55 64 66 64 62 62 63 64 64 63 62 63 64 64 64 64 64 63
69 70 71 71 70 69 68 68 68 69 69 69 69 69 69 69 67 66 67 67 67 66 68 43 45 44 43 42 40 62 69 68 68 69 68 68 68 69 68 68 68 67 66 63 49 40 50 63 65 64 62 62 61 59 55 46 41 45 54 60 61 61 61
68 68 69 69 70 69 68 68 68 69 68 68 67 67 68 68 69 68 67 67 66 66 66 48 43 42 42 41 51 69 69 70 69 67 67 67 67 65 64 65 68 67 64 62 43 42 45 49 66 64 63 61 61 61 57 54 44 40 39 39 38 38 38
69 68 69 68 68 68 69 69 69 69 68 67 66 67 68 67 67 67 66 65 64 62 62 49 41 43 42 44 56 69 70 70 67 67 66 67 67 64 57 43 55 67 63 60 40 43 41 55 66 64 63 61 61 60 58 58 57 51 38 39 38 38 39
68 68 68 68 68 67 68 69 69 69 68 67 67 68 68 67 66 66 65 64 54 57 59 48 40 42 43 45 56 70 70 70 67 66 66 65 66 65 61 53 43 51 56 48 37 42 40 53 66 65 64 63 61 61 60 60 58 57 57 57 55 53 51
66 66 67 67 68 68 68 69 69 69 69 69 68 68 67 67 66 63 62 62 61 60 54 50 46 41 44 43 46 68 71 69 66 66 67 66 65 64 62 60 50 39 38 38 39 39 40 42 63 64 64 64 63 59 61 60 58 59 60 59 59 58 58
64 65 66 66 67 68 69 68 67 67 67 67 66 64 64 65 66 65 65 64 63 62 59 55 49 40 42 43 42 47 73 69 68 68 67 66 66 64 64 62 59 41 38 39 39 39 41 41 46 62 61 59 56 53 54 60 53 44 57 58 57 57 58
63 63 65 66 66 66 68 69 67 67 67 66 65 64 62 63 64 64 63 64 64 62 59 54 57 42 41 42 43 42 66 69 69 69 66 67 67 65 63 61 59 44 37 39 39 40 40 43 44 58 49 39 38 42 57 59 59 59 59 59 59 59 59
62 63 63 64 65 65 67 68 67 67 66 65 64 63 59 59 58 55 56 56 58 60 62 59 50 53 41 41 42 43 47 60 49 67 67 66 65 64 63 58 50 38 38 38 39 39 41 41 45 47 37 38 40 36 44 60 58 58 58 58 57 56 57
63 63 63 64 64 64 65 66 67 67 67 65 64 63 62 61 59 57 54 50 51 54 57 56 49 47 47 39 40 42 45 47 50 65 67 66 65 63 61 57 49 37 38 38 37 38 39 42 46 36 37 36 38 40 56 58 58 57 54 54 55 56 56

ECMWFFLT1_sfc_temp_015.txt.gz
Temp
77 75 77 77 79 79 78 79 79 79 81 81 79 80 80 80 79 79 79 79 80 81 80 79 77 78 79 80 78 78 77 76 75 71 71 74 72 72 73 70 66 70 72 71 72 70 67 65 67 74 75 74 74 75 77 77 77 75 75 77 79 79 77
77 77 78 79 78 78 77 78 79 81 80 80 80 79 79 80 79 79 79 79 79 80 82 81 79 79 77 76 75 75 75 75 75 73 72 73 73 74 71 72 72 69 69 71 70 68 65 68 67 68 68 72 73 74 75 76 77 76 77 78 79 79 77
77 77 78 76 76 76 75 76 77 78 78 77 78 79 79 81 79 79 78 78 78 79 79 80 78 77 76 75 75 75 75 74 74 73 72 74 74 74 73 73 72 69 67 65 69 63 71 74 68 68 69 68 67 70 74 75 77 78 79 78 78 80 78
76 76 75 74 76 75 74 75 76 77 78 77 77 77 78 78 78 78 77 78 78 77 78 79 77 77 76 76 76 75 74 73 73 73 72 72 71 73 72 73 71 73 71 69 69 71 73 71 70 69 71 74 70 68 72 77 78 80 80 79 78 78 77
76 76 75 74 75 75 75 75 76 77 76 77 77 76 76 77 77 77 77 78 78 77 76 77 77 77 77 77 76 74 74 73 73 73 72 72 73 73 74 74 75 76 75 75 76 76 75 73 72 71 72 74 74 74 76 75 79 79 80 80 81 78 78
76 76 76 75 76 76 76 76 75 75 76 75 76 75 75 76 77 76 77 77 76 76 77 77 76 76 76 76 76 75 74 73 73 73 72 72 73 73 74 76 78 78 76 78 78 78 78 76 74 73 75 77 71 72 76 77 76 80 80 79 80 80 79
76 76 77 76 76 77 77 76 76 76 76 75 75 75 76 77 77 76 76 76 76 76 76 76 77 77 76 76 75 74 74 73 74 73 73 74 74 75 77 77 77 77 76 78 77 77 76 76 74 74 72 73 73 74 77 77 78 76 77 80 80 80 78
77 77 77 77 77 76 77 76 77 77 76 76 76 75 76 76 76 76 76 75 76 76 76 76 76 76 77 78 77 75 75 76 75 75 74 74 74 75 75 76 76 76 77 79 79 79 80 78 77 75 74 68 70 73 73 77 76 74 74 77 80 78 77
77 77 77 77 77 77 76 76 76 76 76 76 76 75 75 76 75 75 76 76 76 76 76 77 77 77 76 76 76 75 74 77 74 74 74 74 72 73 74 76 77 77 77 79 80 79 81 79 78 77 76 73 69 66 70 70 72 72 77 75 77 78 78
76 75 75 74 75 76 76 75 75 76 76 75 75 75 75 76 76 76 75 75 75 75 75 75 76 76 76 75 74 74 74 76 75 75 74 73 74 74 74 75 75 76 76 76 77 77 77 78 78 78 79 76 75 70 67 66 67 68 73 77 74 75 78
75 74 73 73 74 74 74 73 73 74 74 75 75 75 75 75 75 75 75 75 75 75 75 76 77 76 76 75 75 75 75 75 74 74 74 75 74 75 75 76 76 75 76 76 75 76 76 77 77 78 78 79 76 71 71 68 66 71 70 74 76 75 77
75 74 74 73 73 72 72 72 73 72 73 74 73 73 74 75 75 75 75 75 75 74 75 75 76 75 76 74 74 74 74 75 74 73 74 74 74 74 73 73 75 74 75 74 75 76 76 77 77 78 78 77 75 74 73 71 66 68 73 69 72 77 76
76 75 74 72 72 73 73 72 72 72 72 73 72 73 74 75 76 75 75 75 75 75 75 75 76 75 75 74 75 75 74 75 75 74 74 75 77 75 74 74 74 75 75 77 76 76 76 77 77 78 77 76 75 74 74 72 69 65 71 71 72 74 75
74 75 75 74 73 73 73 72 71 72 74 73 73 74 75 76 76 76 76 76 76 75 75 74 75 75 75 75 75 75 76 77 76 75 75 74 76 76 76 75 74 74 76 75 75 76 77 77 77 77 77 77 75 75 74 71 68 66 68 72 72 74 75
75 75 74 73 73 73 73 71 71 72 72 73 74 76 77 76 77 77 77 77 76 76 76 76 76 75 75 73 73 75 75 76 76 75 74 75 75 75 74 75 75 74 76 76 75 79 78 78 78 78 77 76 76 74 75 74 70 68 65 69 71 75 73
76 74 73 73 73 74 73 72 73 72 73 74 76 77 77 76 77 78 77 77 77 77 76 76 75 75 74 74 74 74 75 75 74 73 73 74 76 75 74 73 73 73 74 73 73 75 76 77 79 79 76 77 75 75 77 76 73 68 67 68 71 72 72
75 75 74 74 74 74 74 74 75 74 76 76 77 77 77 78 76 76 76 76 76 76 76 75 75 76 76 75 75 74 74 74 74 74 74 76 77 75 74 73 73 73 73 72 74 74 75 76 75 76 75 75 74 74 73 73 73 72 70 68 70 74 74
74 73 73 74 74 74 75 75 76 77 76 76 77 77 77 78 77 76 74 75 75 75 75 75 74 75 74 74 75 74 74 74 74 74 75 75 73 75 74 73 74 74 73 72 72 73 75 73 77 76 75 76 76 74 73 73 75 74 71 69 69 72 73
72 71 72 74 74 74 74 75 76 77 78 77 77 76 76 77 78 77 77 77 77 76 76 75 75 75 75 74 73 73 74 74 74 75 74 75 75 75 74 74 74 74 74 72 72 73 73 73 74 74 75 76 77 74 72 73 73 72 72 71 70 69 71
70 69 72 74 74 75 75 75 76 77 78 77 76 76 77 77 77 78 78 77 77 77 77 77 76 75 76 75 75 75 74 74 74 74 75 75 76 76 75 75 75 74 74 73 72 71 72 72 71 71 72 72 75 74 71 72 74 73 71 70 70 70 69
70 70 73 75 75 75 75 75 76 77 77 76 76 76 76 76 77 78 78 78 78 77 77 77 77 76 77 75 74 74 74 72 74 73 74 75 75 75 75 75 75 75 74 74 73 72 72 71 71 70 71 72 72 71 71 71 70 71 70 69 69 68 69
74 75 74 74 74 74 75 75 76 76 76 76 75 77 77 77 77 77 78 77 78 77 76 75 76 75 75 74 74 73 73 72 73 73 70 69 71 72 71 71 71 74 71 62 54 58 58 60 69 69 70 71 71 70 69 70 70 70 70 69 68 69 68
74 75 74 74 74 74 74 74 74 75 75 76 77 76 77 77 77 76 76 77 77 75 74 74 68 61 64 74 73 73 71 71 71 71 70 70 69 69 70 70 69 63 57 58 58 54 54 52 53 62 68 69 69 69 69 68 68 69 69 68 69 69 67
75 74 74 73 73 73 74 73 72 73 74 75 74 75 75 76 75 76 76 76 75 73 73 70 48 48 50 56 68 68 67 66 66 67 68 67 67 67 70 72 66 61 61 60 64 51 51 51 52 50 48 49 54 65 69 66 67 68 68 67 69 68 67
75 75 73 73 72 72 73 72 71 71 71 72 72 74 73 74 74 74 74 75 73 72 73 53 45 45 47 50 56 68 66 65 63 63 63 65 67 67 67 69 66 62 68 69 71 67 57 47 47 47 47 46 43 40 44 62 65 66 66 66 66 66 67
76 75 75 75 72 72 72 70 70 70 70 70 71 71 72 71 72 73 73 73 73 72 73 48 46 44 45 45 48 60 71 69 68 66 66 67 67 68 66 64 67 70 69 58 65 70 70 59 44 41 42 41 42 43 43 42 48 60 64 65 64 65 66
74 74 75 74 74 73 72 72 71 70 70 69 69 69 70 70 71 72 71 72 72 73 72 49 46 44 44 43 45 52 71 70 69 69 68 69 68 66 64 62 67 69 70 70 70 69 72 65 61 59 60 62 63 51 45 45 44 47 57 64 64 64 64
73 72 72 74 73 73 72 72 72 71 71 70 67 67 65 67 67 68 70 71 70 70 72 47 45 44 43 43 43 48 67 68 68 68 69 68 65 65 67 67 69 70 69 68 64 56 67 67 65 64 63 64 64 63 64 63 63 65 66 66 67 66 65
72 73 73 73 72 72 72 71 70 71 70 70 70 69 68 66 65 66 67 69 68 68 69 44 45 44 43 43 41 57 64 64 66 68 68 68 68 68 69 69 69 69 68 65 50 41 49 62 67 65 63 65 64 60 56 47 41 45 54 60 61 61 60
70 71 71 71 72 72 71 71 71 72 70 69 68 68 65 65 65 63 64 68 68 67 64 46 44 44 44 42 46 60 63 65 66 65 66 68 70 70 68 67 70 68 66 64 45 42 46 45 68 66 65 63 62 62 58 55 44 40 40 40 39 38 39
70 69 70 70 70 70 71 72 72 72 71 70 69 69 70 67 65 67 69 68 67 63 60 53 42 44 43 43 51 63 66 67 67 68 66 68 69 66 58 44 57 68 64 62 40 42 39 52 67 66 64 62 61 61 59 58 57 52 40 40 40 40 42
68 68 68 68 68 68 70 70 72 72 71 71 69 71 71 67 64 69 70 69 57 58 60 53 41 42 43 42 53 67 69 68 66 67 65 67 67 65 62 53 44 53 58 49 37 41 38 51 67 66 65 64 62 62 61 61 60 58 57 57 56 53 51
68 67 67 67 68 68 69 70 70 71 71 72 72 71 71 71 69 69 69 68 63 60 59 60 49 41 43 43 48 66 71 69 68 66 66 66 65 65 63 60 50 39 39 38 39 40 41 42 62 67 66 65 64 63 62 62 59 61 62 61 62 61 61
66 66 67 66 67 67 69 69 69 70 70 70 70 70 70 69 69 69 69 67 67 65 64 62 54 42 42 43 45 50 69 68 68 67 67 66 66 63 64 63 58 40 38 39 40 40 42 43 47 61 59 57 56 53 56 62 55 49 59 60 60 59 60
65 65 66 66 66 66 68 69 68 69 70 69 68 67 69 69 68 68 68 67 66 62 61 55 59 43 41 42 44 40 49 55 60 64 65 66 65 64 63 60 57 44 38 40 40 41 41 44 46 57 50 41 38 41 58 61 62 61 61 61 61 61 61
63 65 65 65 65 64 66 67 68 68 68 67 67 66 66 67 67 65 64 65 65 65 64 55 47 49 42 43 43 44 40 43 44 57 62 65 65 64 61 56 49 39 39 40 40 41 42 42 46 49 39 41 41 36 45 62 61 60 60 60 59 58 59
63 64 64 65 65 64 65 66 66 67 68 68 68 67 67 66 65 64 63 62 62 63 61 58 47 46 47 42 42 42 41 41 41 58 67 66 65 61 57 54 48 38 39 38 38 40 40 44 47 38 40 38 39 43 57 60 59 60 59 56 56 57 58

ECMWFFLT1_sfc_temp_021.txt.gz
Temp
65 64 65 65 66 67 65 66 65 65 66 66 65 65 65 65 65 64 64 63 64 64 65 65 65 65 67 68 66 65 64 64 63 61 60 60 60 58 60 60 61 62 61 60 59 57 55 54 56 62 61 61 63 62 64 65 64 62 62 62 64 63 62
66 65 65 66 64 64 64 65 66 66 66 66 65 65 65 67 67 65 64 64 64 65 66 66 65 66 65 65 64 64 63 63 64 62 61 60 61 59 60 60 60 60 60 60 61 60 56 55 54 57 58 59 60 61 62 62 64 63 64 64 64 62 60
65 64 64 63 63 63 63 63 63 64 64 65 65 66 66 66 66 66 66 65 65 65 65 65 65 65 64 64 64 64 65 64 63 63 62 60 61 61 62 61 61 59 59 60 60 59 60 60 57 56 55 57 56 60 61 62 65 65 64 63 62 62 60
64 64 63 62 61 62 63 63 63 63 64 64 63 65 65 65 64 64 64 65 65 65 65 65 64 64 63 63 63 64 65 64 64 62 62 62 62 61 62 61 61 61 60 57 58 58 58 56 55 56 56 57 55 57 60 61 63 65 65 62 62 60 59
65 65 64 62 62 62 61 61 62 63 63 64 63 63 63 64 64 63 64 64 64 64 65 65 65 65 64 64 63 64 63 63 63 63 63 62 62 61 62 62 62 62 61 60 61 60 60 59 59 56 56 58 58 57 63 60 65 65 64 63 62 61 59
65 65 64 63 63 63 61 62 62 61 62 63 61 63 64 63 63 64 65 64 63 63 64 65 64 65 66 64 63 62 63 62 62 63 62 61 61 61 60 61 62 62 62 61 62 61 61 61 60 57 58 59 54 58 60 61 60 62 64 63 63 62 61
64 64 64 64 63 63 63 62 62 62 62 62 63 61 62 65 63 64 64 64 62 63 63 63 65 66 65 64 63 63 63 62 61 60 60 60 60 61 62 60 60 61 61 60 60 62 61 60 59 59 57 58 56 60 61 59 64 61 61 63 64 63 61
64 63 62 64 63 63 62 62 62 62 62 62 63 64 62 63 63 64 63 63 64 63 62 63 65 63 63 64 64 62 61 61 62 61 60 61 62 60 59 59 61 60 60 60 59 62 62 63 62 60 58 55 55 55 57 59 58 59 61 60 64 62 60
64 64 63 64 63 62 62 63 63 62 63 62 63 63 63 63 63 63 63 62 61 62 63 64 63 63 63 62 61 62 62 65 62 61 60 61 61 60 60 60 62 60 60 62 63 60 61 63 62 59 59 59 55 52 53 54 55 57 63 59 61 63 61
64 63 63 62 62 62 63 63 63 62 63 64 64 62 61 60 60 61 63 62 62 61 62 62 62 62 62 61 61 60 60 60 62 62 59 60 57 59 60 60 59 60 60 60 62 61 62 62 62 61 58 59 59 55 50 49 54 52 60 61 58 62 62
64 63 63 62 62 63 62 63 63 63 63 63 63 63 60 61 62 63 60 60 59 60 61 61 61 62 61 60 61 61 60 59 59 59 61 62 61 61 60 61 61 60 59 61 60 59 61 62 62 61 59 58 59 58 50 48 51 53 55 59 58 59 61
64 64 63 63 63 63 62 61 62 61 61 61 63 61 60 60 61 60 59 59 59 60 59 60 60 61 60 59 58 58 58 59 59 59 58 60 60 62 61 59 58 59 58 60 61 63 62 62 62 62 59 59 59 59 58 53 49 55 54 55 59 61 60
64 64 63 63 63 62 62 62 61 61 60 62 61 60 59 60 59 59 59 59 60 59 60 60 61 60 59 58 59 61 58 58 59 58 59 62 65 60 58 58 58 59 59 60 61 62 61 61 62 61 61 60 59 59 58 54 53 55 57 54 57 59 61
63 63 63 63 62 61 62 62 61 62 61 61 59 59 60 59 59 60 60 60 59 58 58 59 59 57 57 57 59 59 58 60 60 59 59 59 61 60 60 58 58 59 58 59 57 58 61 60 59 61 62 61 59 60 60 57 55 54 57 56 55 59 60
63 62 62 61 62 62 61 61 60 60 60 59 59 59 60 59 59 61 59 59 58 58 59 58 57 57 59 58 58 61 60 59 58 58 57 58 58 61 58 58 59 58 59 60 59 64 61 62 64 62 59 60 59 59 57 54 52 49 52 57 59 59 60
63 62 61 60 61 62 60 61 61 60 59 60 60 59 60 60 60 59 59 60 59 59 59 58 58 59 57 57 58 58 59 58 58 58 59 59 60 59 58 57 58 58 60 59 57 57 60 62 64 64 59 60 60 59 61 61 54 52 55 55 53 59 58
63 62 60 60 61 60 60 60 61 60 61 60 62 60 59 61 59 58 60 60 59 58 58 60 60 59 60 59 60 60 59 58 59 59 59 60 61 60 58 57 58 57 56 56 57 57 57 59 60 58 59 58 59 60 57 60 61 55 53 55 55 60 59
62 61 61 61 60 60 60 61 60 61 60 61 61 60 60 61 60 61 61 60 60 59 60 60 60 60 59 58 59 59 59 58 58 59 59 60 62 59 58 57 58 56 54 57 57 57 57 58 62 61 57 58 59 60 60 59 58 56 54 53 54 57 57
62 62 62 62 61 62 62 60 59 60 60 60 60 60 62 61 62 62 60 61 61 61 60 59 60 59 58 58 58 59 58 58 58 58 59 59 59 59 58 57 57 57 56 56 58 57 57 57 59 59 59 59 59 57 56 57 57 56 57 55 54 56 57
61 61 61 61 62 62 63 62 61 62 61 61 59 60 61 60 59 61 62 61 62 62 62 61 60 59 59 59 59 58 58 58 58 58 59 60 60 59 59 60 59 58 58 56 57 57 56 57 57 56 57 57 59 56 54 55 56 55 54 54 55 54 55
62 61 61 61 61 62 63 62 62 62 62 61 62 62 61 60 59 59 61 59 60 61 61 60 59 59 61 59 58 57 58 59 59 61 59 59 59 59 58 58 58 57 57 57 56 56 55 56 55 55 55 56 55 54 55 53 53 53 54 53 54 54 53
62 61 61 61 60 60 60 61 62 62 61 60 63 64 62 61 60 59 59 60 60 61 61 61 61 62 61 60 60 58 58 59 58 57 57 58 58 59 58 57 57 56 58 57 54 55 58 58 57 55 56 54 54 55 55 53 53 52 50 51 51 51 51
60 60 60 60 59 59 59 59 59 61 61 62 62 63 63 62 61 62 60 58 58 60 61 62 61 58 58 62 59 63 60 60 59 58 58 58 58 58 58 57 59 60 57 55 52 49 48 51 55 56 56 55 53 53 54 54 54 53 53 52 52 52 51
58 58 57 58 58 60 60 60 59 59 59 58 58 59 60 61 59 58 60 58 57 60 61 62 54 51 52 55 61 59 60 59 58 59 58 58 57 58 57 56 55 57 57 56 52 48 47 48 48 48 48 50 53 54 53 53 52 52 54 52 50 48 47
57 56 57 57 57 58 58 60 59 58 58 58 57 57 57 58 58 59 59 59 57 58 59 55 50 50 50 51 55 61 60 60 58 58 56 57 58 57 57 57 55 57 56 56 55 51 49 47 45 44 44 44 43 45 50 53 52 51 49 49 49 48 47
56 56 57 57 57 59 59 59 58 59 60 59 58 57 55 56 56 57 57 59 60 56 54 44 49 47 48 48 51 57 62 60 59 58 58 57 56 57 57 57 57 57 60 58 59 55 51 47 44 42 42 43 44 45 44 46 49 53 52 50 49 48 48
57 57 56 56 57 59 58 58 57 57 58 58 57 55 55 56 56 56 55 55 54 54 55 46 45 47 48 46 47 54 62 60 59 59 58 59 58 56 56 56 56 57 56 56 55 56 54 49 47 47 48 48 47 45 44 44 45 46 49 50 49 50 50
57 56 57 56 55 56 56 55 56 56 56 57 56 55 56 55 55 55 55 54 52 54 56 45 44 45 48 47 47 47 56 57 56 56 57 57 56 55 55 56 56 57 57 56 56 55 55 51 50 50 49 49 48 48 48 48 49 51 51 51 50 50 49
56 57 57 55 55 55 55 54 55 56 55 56 55 55 54 54 54 55 55 54 53 51 53 43 44 45 46 46 45 51 52 52 54 56 55 56 56 55 55 56 56 55 55 56 50 47 51 54 53 52 51 48 47 47 46 44 42 46 49 49 49 48 47
55 56 55 55 54 54 54 55 55 55 54 53 54 55 56 56 56 56 55 54 54 52 52 45 42 44 45 44 46 52 53 53 53 53 54 54 56 57 58 57 56 55 54 53 46 44 46 50 54 53 51 49 48 46 45 45 41 41 42 43 43 43 41
53 54 54 54 54 54 54 54 55 55 53 54 55 55 55 56 55 56 56 55 55 54 52 49 43 44 44 44 48 54 54 54 54 54 54 55 54 55 56 55 58 57 55 51 42 42 44 52 53 52 50 49 47 45 43 45 45 43 41 40 40 40 40
52 53 53 54 55 56 56 55 55 55 55 55 55 55 56 55 55 55 55 55 55 54 52 50 44 43 44 44 47 52 53 53 52 52 52 53 54 54 54 54 52 53 55 46 42 42 43 51 54 53 52 50 47 45 45 44 44 42 43 43 43 43 44
52 53 53 53 54 54 54 55 56 56 56 56 55 54 54 55 53 54 55 55 54 54 53 52 49 43 43 44 44 50 52 52 52 52 53 54 54 50 48 46 45 41 45 42 43 42 43 46 53 54 53 51 49 48 47 46 44 44 43 43 43 43 43
51 52 53 53 53 53 53 53 53 52 51 52 51 52 52 53 54 53 54 54 53 53 55 54 51 43 43 43 42 46 52 53 51 52 52 51 49 47 44 43 42 40 40 40 40 41 43 45 48 54 53 51 50 50 48 47 45 45 44 43 43 42 42
52 52 53 53 51 51 52 53 53 52 52 51 51 51 51 52 53 53 52 52 53 53 54 53 55 46 43 43 42 43 50 51 51 52 51 50 48 46 45 44 43 40 39 40 39 40 41 42 44 49 48 43 42 44 51 49 47 46 45 44 42 41 43
51 53 52 51 50 49 49 50 51 51 51 51 50 50 51 51 51 51 52 51 52 53 53 53 48 48 42 42 41 42 45 47 42 50 51 50 48 44 44 43 43 40 39 39 40 41 41 42 44 44 40 41 42 42 44 46 45 46 42 43 43 43 41
49 48 49 48 48 48 48 49 49 49 50 50 49 49 49 49 50 50 50 51 51 52 53 52 49 45 43 41 41 42 42 43 41 48 50 48 45 43 43 42 41 38 39 40 40 41 41 43 43 39 41 41 42 44 47 46 44 44 41 41 41 41 43

ECMWFFLT1_sfc_temp_024.txt.gz
Temp
62 61 61 61 61 62 61 62 62 61 62 62 62 60 61 62 61 61 61 62 62 63 63 64 63 63 64 64 63 62 62 62 61 60 58 58 59 57 59 58 58 58 57 57 57 57 54 53 54 59 58 57 60 60 61 61 60 60 59 59 59 58 56
63 62 61 62 61 62 60 60 61 61 60 61 61 61 61 61 62 61 60 61 61 62 64 62 62 63 63 62 61 61 61 61 60 60 60 58 59 58 58 58 57 58 58 58 58 57 53 55 52 55 56 58 57 57 59 59 60 60 59 58 59 57 55
62 61 61 60 60 61 61 60 60 60 61 60 60 61 60 61 61 60 60 61 61 61 63 62 61 62 62 62 62 62 61 61 60 61 61 59 60 60 60 58 57 57 58 58 56 55 57 55 56 55 55 57 54 54 57 58 59 58 59 58 56 56 54
61 61 60 60 60 61 61 59 60 60 61 61 61 60 60 61 60 61 60 60 61 63 62 61 61 62 62 62 61 61 60 61 60 60 59 59 59 59 59 59 59 60 59 57 57 56 54 53 53 54 53 54 55 54 55 57 59 59 58 56 56 55 54
62 62 61 60 61 61 59 59 59 60 60 61 60 60 60 60 61 60 61 61 62 61 61 62 61 62 62 62 61 61 61 61 61 61 59 59 58 59 59 59 59 60 58 59 59 58 57 56 57 54 54 53 56 54 59 57 58 57 57 57 56 55 54
61 61 60 60 59 59 59 59 59 60 59 61 59 60 58 59 60 62 61 61 61 62 62 61 61 61 62 62 62 61 61 62 61 61 59 59 59 59 59 58 59 59 58 58 59 58 57 56 58 54 55 52 51 53 55 56 54 57 56 57 56 56 55
61 61 60 61 59 60 60 60 60 59 60 60 59 59 59 59 60 60 60 59 59 59 61 61 62 61 61 61 61 61 60 59 59 59 58 58 58 58 58 59 58 58 59 58 59 58 58 57 54 56 54 52 51 57 56 54 57 55 57 59 58 56 56
61 60 60 61 60 60 59 60 60 59 59 58 60 59 59 59 59 59 59 59 59 59 60 61 62 61 60 61 60 59 58 57 58 58 56 57 58 57 56 57 57 58 57 55 58 60 61 60 58 56 56 54 51 52 53 54 54 52 54 56 58 57 55
61 60 60 60 59 59 59 61 60 59 60 59 59 59 59 60 59 59 58 57 58 60 60 60 60 60 59 59 58 58 58 60 58 57 56 57 57 57 57 56 57 57 56 56 60 61 62 61 58 56 57 58 55 49 49 51 50 52 57 54 57 57 56
60 60 60 58 58 59 60 60 60 60 59 60 60 59 58 57 58 59 59 58 58 58 58 58 59 59 59 59 59 57 57 57 58 57 56 57 56 56 56 56 57 56 56 57 60 61 60 59 58 55 58 59 57 54 47 46 49 48 55 53 53 56 57
61 60 59 59 59 59 59 60 59 59 59 60 60 59 58 58 59 60 57 57 57 58 57 57 58 58 58 57 57 57 56 56 57 56 56 57 56 56 57 57 58 57 56 58 58 59 59 58 57 57 56 56 58 57 48 48 48 47 52 55 52 55 55
60 60 59 60 60 61 59 59 59 58 57 57 59 58 57 57 57 56 56 56 57 57 56 57 57 58 58 56 56 56 55 57 58 56 56 58 57 58 57 57 57 56 56 58 58 59 58 58 56 56 55 56 56 57 54 52 49 51 51 55 54 55 57
61 61 60 60 60 60 60 59 58 57 58 59 57 57 57 57 57 56 56 56 56 56 57 56 57 57 57 56 56 58 55 56 57 56 56 56 60 56 55 56 55 56 55 57 58 58 56 56 57 57 56 55 53 53 54 52 52 53 50 48 52 56 58
60 60 60 60 60 59 59 59 59 59 57 57 57 57 57 56 56 56 55 56 56 55 56 56 55 55 56 55 54 54 54 56 57 55 55 55 55 55 55 54 54 54 55 56 55 56 56 55 56 56 56 56 55 55 57 53 53 52 55 50 51 55 58
60 60 60 59 59 59 58 58 58 58 59 56 58 58 57 55 55 55 55 54 55 55 55 55 54 55 56 54 54 56 55 55 54 54 54 54 54 57 54 55 55 54 54 56 55 59 58 58 59 58 56 58 57 56 55 51 49 48 52 55 56 55 54
60 59 59 58 59 59 58 58 58 59 58 56 56 58 57 56 56 54 55 54 54 54 54 54 53 54 53 54 55 56 55 53 53 54 55 55 56 53 54 54 54 55 57 57 54 54 55 57 59 60 56 56 57 56 56 57 52 51 53 53 51 54 55
59 59 58 57 58 56 57 57 57 58 57 56 57 55 56 56 55 54 55 55 54 53 54 54 53 53 55 54 54 55 53 53 53 54 56 55 55 55 54 54 55 53 54 55 53 54 54 54 55 55 55 54 55 56 54 55 58 51 50 55 52 56 56
58 58 57 56 56 56 57 57 57 57 56 56 56 56 56 55 55 55 57 56 55 54 55 54 55 54 54 54 56 55 53 53 54 55 56 55 57 55 54 55 55 52 53 54 52 54 54 55 57 55 54 54 55 56 56 55 53 50 53 55 55 53 51
59 58 57 56 57 57 58 57 57 56 56 57 55 55 57 55 59 57 56 56 54 55 55 55 56 55 54 54 55 56 55 56 55 56 55 56 55 54 55 55 54 53 54 56 55 54 53 54 55 55 55 55 55 54 54 53 53 54 55 54 54 54 54
59 59 58 58 57 57 57 57 57 58 56 56 55 56 56 57 56 58 57 55 56 57 57 56 55 54 54 54 56 56 55 54 55 55 56 57 57 56 56 56 55 55 55 55 55 55 54 53 56 54 55 55 54 53 54 52 52 53 52 51 51 51 53
58 59 59 58 58 58 58 56 56 57 56 55 56 56 56 57 56 57 57 56 57 57 57 56 55 54 55 55 55 54 55 54 55 55 55 56 56 57 57 57 57 56 56 55 56 55 55 56 54 54 53 54 52 53 53 51 50 50 50 51 51 50 49
59 58 59 59 58 57 58 58 58 57 57 56 57 57 57 56 57 56 55 57 57 57 58 59 59 57 57 56 55 56 54 55 55 55 55 56 55 55 55 56 56 55 57 59 55 55 56 56 57 56 52 52 52 52 51 51 52 49 50 50 50 47 47
57 57 58 59 58 57 56 56 56 56 57 57 56 57 59 58 57 57 56 55 56 57 58 58 59 56 57 59 55 59 57 55 54 54 56 56 55 54 55 55 57 60 58 57 53 51 51 52 56 59 56 53 53 53 51 51 50 51 51 51 49 48 48
57 57 57 57 58 58 57 56 56 56 55 56 56 55 55 56 58 56 56 57 55 57 58 59 53 49 50 53 58 56 56 56 54 54 55 55 56 55 54 54 54 57 57 56 54 47 48 48 49 51 52 54 55 56 53 51 51 50 51 51 48 46 45
57 57 57 56 56 56 56 56 55 54 55 55 54 54 55 54 54 54 55 54 53 55 56 56 51 47 48 49 53 59 57 57 55 54 54 55 55 55 55 54 53 54 54 55 54 51 48 46 44 44 45 46 47 48 49 54 53 50 48 49 47 47 45
57 56 55 55 55 56 56 56 56 56 55 55 54 54 53 54 54 54 54 53 54 53 54 50 49 50 47 46 47 54 60 59 58 57 56 56 55 55 55 54 54 55 57 58 56 52 50 46 44 43 43 43 45 45 45 46 46 55 52 52 51 47 46
54 54 55 55 55 56 56 54 54 54 55 55 54 54 54 55 54 53 53 52 53 52 51 46 43 47 49 48 46 47 58 58 59 59 58 58 57 56 55 55 54 55 54 54 54 52 51 49 47 46 46 46 46 45 44 44 44 45 50 54 53 53 50
52 52 52 53 53 52 52 52 53 53 53 53 53 54 53 53 53 54 53 51 52 53 53 45 42 43 45 46 46 45 53 56 57 57 56 55 55 55 55 54 54 54 52 52 52 52 52 49 48 48 45 46 45 45 44 45 48 48 48 49 52 53 50
50 50 50 51 51 50 50 50 50 50 51 50 52 51 50 50 50 50 51 52 51 52 54 44 43 43 43 44 44 51 53 54 54 54 54 54 53 53 53 53 53 53 52 52 51 47 49 50 49 50 49 46 44 43 43 43 40 42 47 49 50 51 50
50 49 49 49 49 49 49 49 49 50 49 48 48 48 49 49 51 51 50 49 50 52 52 48 42 43 43 42 45 52 53 53 52 53 54 53 54 54 53 53 53 53 52 53 48 44 44 48 51 50 47 46 45 45 44 44 41 41 43 44 44 44 44
49 49 48 48 47 47 47 47 48 48 48 48 48 48 48 48 49 50 50 52 51 50 51 50 45 43 43 42 47 54 54 53 54 53 52 52 51 52 54 54 56 54 53 51 45 43 42 49 53 51 48 47 45 44 44 44 44 42 42 41 41 42 42
48 48 48 47 47 47 46 46 46 46 47 46 46 47 47 47 47 48 48 49 53 52 52 51 46 43 43 43 45 51 52 51 51 51 52 52 51 52 51 52 53 54 53 50 43 43 42 49 54 52 49 48 45 46 44 44 42 42 43 45 43 43 42
48 48 47 47 47 47 46 47 47 47 47 47 47 47 47 48 47 48 48 47 49 50 51 52 51 45 44 43 43 49 50 50 50 51 51 52 52 50 49 51 49 44 44 44 42 42 42 45 53 52 48 48 47 46 46 45 45 45 45 46 45 43 43
47 48 47 47 47 47 47 46 47 47 47 47 46 47 47 47 47 47 47 47 47 48 50 51 51 46 45 44 44 44 50 51 52 51 51 50 50 50 49 48 45 43 42 42 43 42 42 41 45 50 50 49 50 50 46 46 45 44 45 43 43 42 42
48 48 47 47 45 45 46 46 48 48 48 47 46 45 45 46 45 45 46 45 46 46 49 49 50 48 45 44 44 43 48 50 51 52 51 50 49 48 48 46 44 42 41 41 41 42 42 42 42 49 49 45 42 41 48 48 46 44 44 43 42 40 40
46 47 46 45 44 43 44 44 45 45 44 44 44 43 43 43 43 42 43 44 44 45 46 47 46 47 45 44 43 42 43 47 46 49 50 50 49 49 46 44 44 42 40 41 41 42 43 43 43 48 43 41 40 42 45 46 45 44 43 43 42 39 37
45 44 44 44 44 44 44 44 44 45 43 42 41 41 41 42 42 42 42 42 44 45 45 44 45 45 46 44 43 42 41 42 44 48 50 51 49 47 43 42 42 39 39 40 40 41 41 42 46 42 41 41 41 43 47 44 43 44 41 40 40 40 39

ECMWFFLT1_sfc_temp_027.txt.gz
Temp
62 60 60 59 59 59 59 59 58 59 60 60 60 59 59 61 60 59 59 60 61 61 62 61 61 61 62 62 61 60 60 61 60 60 57 57 59 58 59 57 57 57 56 54 56 57 52 53 53 57 57 56 57 57 58 58 57 55 54 54 55 54 52
60 60 58 59 59 58 58 57 58 59 59 59 59 59 59 60 61 60 59 59 60 61 63 61 61 62 62 61 60 60 60 59 59 59 59 58 58 58 57 56 57 56 56 56 55 54 51 51 51 52 53 55 56 55 56 55 55 55 55 54 56 54 54
58 57 57 58 57 57 57 56 57 57 57 57 58 58 58 59 59 59 59 59 59 61 62 61 61 60 60 61 61 61 59 59 58 60 60 59 59 58 59 58 56 55 57 56 54 55 56 52 53 52 52 54 53 53 55 54 55 54 54 53 52 52 51
57 58 57 57 56 56 57 56 57 57 57 57 57 57 57 57 57 58 58 58 58 61 61 60 61 61 61 60 60 59 59 59 58 58 57 57 58 58 58 59 60 61 59 56 55 55 54 51 52 51 51 51 52 52 52 53 54 54 54 52 51 50 50
59 59 59 58 57 57 57 56 56 57 56 58 57 57 57 57 57 57 57 57 59 58 58 59 60 61 61 60 59 59 59 58 58 59 58 57 57 58 58 58 59 58 56 58 58 57 57 56 57 52 51 51 53 50 54 53 54 53 52 52 52 51 50
59 59 59 58 57 58 57 57 57 57 57 59 57 57 57 57 58 58 57 58 58 58 58 58 58 59 60 60 60 60 59 59 59 58 57 58 58 58 58 56 57 57 57 58 58 57 57 57 56 53 51 50 47 49 53 51 52 53 52 53 53 52 52
58 59 58 59 57 58 58 58 58 58 58 57 57 57 57 58 57 57 57 57 57 57 58 58 58 58 59 59 59 59 59 59 58 57 57 56 57 56 58 57 56 56 55 58 57 57 57 56 54 56 51 48 50 53 51 50 53 52 55 54 54 53 52
58 57 57 58 58 58 57 58 57 56 58 56 57 57 57 57 56 56 57 57 57 57 58 58 60 58 58 59 58 57 56 56 56 56 55 57 58 56 55 57 57 56 56 56 57 58 60 59 57 55 55 51 47 49 50 49 49 48 50 52 53 55 52
59 58 58 57 57 58 58 58 57 56 58 57 56 56 58 57 56 56 56 55 56 57 57 57 57 58 57 58 57 56 56 57 56 55 54 56 56 56 56 54 57 56 55 56 58 58 59 59 58 56 57 56 52 46 47 49 49 49 52 52 54 53 53
58 58 58 56 56 56 57 57 57 57 57 57 58 57 55 55 55 55 55 55 56 56 56 56 56 56 56 57 56 54 54 54 55 54 53 55 53 54 53 54 56 55 55 56 57 58 57 56 57 56 59 58 55 51 45 45 46 45 53 50 52 54 54
58 57 57 56 56 57 56 57 57 58 57 57 57 57 55 55 56 57 54 54 54 55 55 55 56 55 56 55 54 53 53 53 54 53 53 54 54 54 53 53 53 53 53 56 57 57 57 56 55 56 54 54 57 55 48 48 48 44 50 50 49 54 52
58 57 57 57 57 58 57 56 56 56 55 55 57 55 54 54 54 53 54 53 54 54 54 54 54 55 55 54 54 53 53 53 55 53 52 54 54 55 52 52 52 52 52 54 56 57 57 57 55 54 52 54 55 54 54 49 47 49 49 54 52 51 53
59 58 57 58 57 57 57 56 55 55 55 55 54 54 54 54 53 53 53 54 53 53 53 54 54 54 54 53 53 55 53 54 55 54 52 53 56 53 54 54 51 52 53 54 55 56 55 55 56 54 54 54 49 50 52 51 51 53 49 51 52 52 53
59 58 57 58 58 57 56 56 55 54 54 54 53 54 54 53 52 53 53 54 53 53 53 53 54 53 53 53 52 53 52 54 55 52 53 53 52 53 54 54 52 52 53 55 54 55 55 55 54 55 54 52 51 51 54 48 49 49 53 46 48 54 53
58 58 58 57 57 56 56 55 54 54 54 54 54 53 53 53 52 53 53 53 53 52 53 52 52 53 54 53 52 54 54 53 53 51 52 52 51 54 52 54 53 52 52 54 54 56 55 54 55 55 54 55 53 53 51 48 47 48 52 52 52 51 52
58 58 58 57 57 57 56 55 55 55 54 54 54 54 53 52 52 51 52 52 52 52 52 52 52 52 52 53 52 51 52 52 52 52 52 51 52 51 52 52 52 52 54 53 52 52 52 54 55 57 55 55 55 54 53 52 49 50 51 51 50 51 50
58 58 58 57 57 55 55 55 55 55 54 53 54 54 52 52 52 51 52 52 52 52 52 52 51 51 52 51 52 52 50 50 51 51 52 51 51 52 51 52 51 51 52 53 51 52 52 52 54 54 54 53 55 55 54 52 56 51 50 53 50 55 53
56 57 56 56 56 55 55 55 55 54 52 53 53 53 54 52 52 52 53 52 52 52 51 51 51 51 52 51 51 51 51 50 51 51 51 51 55 51 52 53 51 50 51 53 50 52 53 53 54 54 54 54 54 55 53 54 52 48 53 53 53 50 49
57 57 57 57 56 55 55 54 54 54 53 53 52 53 54 53 53 53 52 51 52 52 51 51 51 51 51 51 51 51 51 51 51 51 51 51 52 50 52 51 51 50 52 54 52 51 51 52 52 52 52 52 52 51 51 50 50 51 54 54 52 52 49
56 57 58 57 56 55 55 54 54 54 54 53 53 53 53 53 53 53 52 52 52 52 52 52 51 51 51 51 51 52 52 51 52 51 51 52 51 51 51 52 50 50 51 51 52 51 51 50 53 51 52 52 52 52 51 51 50 51 52 51 48 49 50
57 56 55 55 55 55 56 55 54 53 54 54 53 52 53 54 53 53 52 52 52 53 53 53 52 51 52 51 52 52 51 51 52 51 52 52 51 51 51 52 51 51 51 52 53 51 52 53 50 52 50 51 51 52 52 50 49 50 49 49 50 50 46
55 55 55 55 56 56 56 54 54 54 55 55 55 54 53 54 53 53 53 53 53 53 53 54 54 52 52 52 52 52 51 52 52 52 52 52 52 51 51 51 51 50 53 56 54 54 54 55 55 54 50 49 50 52 51 50 51 49 49 50 49 46 47
55 55 55 55 55 55 55 54 54 55 56 54 54 54 52 53 53 53 54 53 52 53 54 54 56 54 54 54 51 54 53 52 52 52 53 52 52 51 51 51 53 58 57 56 53 50 49 51 55 57 55 51 52 51 51 50 49 50 50 49 49 48 49
56 55 55 55 55 56 56 55 54 54 53 53 53 53 54 54 53 52 53 53 53 54 55 56 53 48 48 51 54 52 53 52 50 51 51 52 53 54 52 51 50 55 56 56 53 48 47 47 47 50 51 52 54 55 51 50 50 48 49 51 48 46 49
54 54 55 54 54 54 54 55 55 55 55 54 53 53 53 51 51 52 52 52 51 53 54 54 50 47 46 47 51 56 54 54 53 51 51 51 53 52 53 53 52 52 53 52 52 50 48 47 46 47 47 46 48 50 51 54 52 48 47 49 46 48 47
53 53 52 52 52 52 52 52 52 53 54 54 53 54 52 52 51 50 50 52 52 50 50 49 45 45 45 45 45 50 54 54 55 53 52 53 53 53 53 54 54 54 55 57 56 50 50 48 46 45 46 48 47 45 45 45 48 53 51 51 51 49 48
52 52 51 51 50 50 50 50 49 49 51 52 52 52 52 51 51 51 50 51 52 50 50 46 42 42 44 44 43 45 52 53 54 54 54 54 54 54 54 54 54 54 52 52 52 50 50 46 45 46 46 46 47 47 45 45 44 44 49 54 52 52 51
50 51 51 50 49 48 48 49 49 48 48 49 49 49 50 50 50 50 50 49 50 51 51 45 40 39 41 44 44 44 48 51 52 52 53 53 54 54 54 55 54 55 54 52 53 52 49 47 46 45 46 49 47 45 45 45 44 44 46 48 52 55 54
49 49 49 49 48 48 47 47 47 47 47 46 47 47 48 48 48 49 49 49 47 50 51 46 42 40 40 41 43 47 48 49 51 52 52 52 53 53 53 53 53 53 53 53 50 46 48 49 50 49 48 47 46 45 44 44 41 41 42 45 48 51 51
47 46 46 46 45 45 46 46 46 46 46 45 45 45 45 45 46 46 48 48 49 49 50 48 44 43 41 40 44 47 47 48 48 50 52 52 52 53 53 53 53 52 52 52 47 43 44 47 51 51 51 49 46 46 45 43 41 40 40 42 43 44 43
47 46 45 45 46 46 46 46 46 45 44 44 45 44 44 44 44 45 45 46 47 47 48 48 45 44 43 42 43 49 50 49 49 50 51 52 51 51 53 53 55 53 52 51 46 42 42 47 50 51 49 48 46 44 43 42 44 42 41 41 40 40 40
47 46 45 44 44 44 45 45 44 44 44 44 44 43 45 43 43 43 44 44 49 47 46 47 45 43 43 43 44 47 49 48 48 49 50 51 50 50 51 51 51 51 51 49 45 43 42 46 52 51 50 49 47 46 45 42 42 43 43 45 42 43 43
47 47 46 46 46 45 45 44 43 43 43 43 42 42 42 43 42 42 42 43 43 44 44 45 46 43 43 43 43 46 48 48 49 49 50 51 52 52 49 50 49 44 44 45 44 43 42 42 51 52 49 49 48 48 45 43 44 45 46 46 44 43 42
45 45 45 45 46 46 45 44 44 43 42 43 42 42 41 42 42 41 41 41 41 42 44 45 45 43 43 43 42 42 46 48 49 50 49 49 49 50 50 49 48 46 43 43 43 43 43 42 44 50 50 50 50 48 44 45 44 44 44 43 42 40 41
45 45 44 44 44 43 43 44 45 44 43 42 41 41 40 41 41 41 41 41 41 41 44 46 43 43 42 42 42 41 43 46 48 49 50 50 49 48 49 49 49 47 44 42 42 42 42 42 41 46 49 45 42 41 46 46 45 44 43 42 40 39 40
44 45 43 43 43 42 42 43 43 43 42 42 41 40 40 40 39 39 39 40 40 40 40 42 43 42 42 42 42 41 39 41 40 45 47 49 50 51 49 48 48 46 43 42 41 41 41 41 41 44 43 42 41 41 42 44 43 44 43 42 41 40 39
42 41 42 42 42 41 41 41 42 42 41 41 40 39 39 39 38 38 38 38 39 40 40 39 41 42 41 41 41 40 39 38 38 43 46 48 50 51 50 48 47 44 42 41 41 41 41 40 43 41 42 41 40 40 44 43 44 44 42 41 40 39 39

ECMWFFLT1_sfc_temp_030.txt.gz
Temp
60 59 58 58 58 60 59 60 60 60 61 61 61 61 60 62 61 61 62 63 63 62 62 62 62 62 62 63 62 62 61 62 62 61 60 60 62 60 59 59 59 60 59 57 61 60 57 54 54 59 60 60 60 60 60 59 58 57 56 56 58 57 57
59 59 59 59 58 58 58 57 58 58 58 58 59 60 60 60 62 61 61 61 62 63 64 62 62 63 63 62 61 61 61 61 62 62 62 61 60 59 58 58 58 58 58 58 56 57 56 55 54 56 55 59 60 58 58 58 57 57 57 57 59 58 57
58 57 58 57 56 57 57 56 56 57 57 57 57 58 59 60 61 61 60 61 61 62 63 62 62 62 62 62 62 61 61 61 61 62 62 61 60 59 60 59 58 58 59 60 57 57 59 58 56 55 56 56 55 56 57 56 57 56 56 56 56 57 56
56 57 57 56 55 56 57 55 55 55 56 56 57 57 57 57 58 61 60 60 61 63 62 62 62 62 62 62 61 61 61 61 60 61 61 60 60 60 60 61 61 62 60 58 58 58 58 55 55 55 55 57 57 55 57 57 57 57 57 56 56 55 55
58 58 58 56 56 56 55 55 55 56 56 56 56 56 57 57 58 58 59 59 60 61 61 61 62 62 62 61 60 61 60 60 60 60 60 59 60 60 60 61 61 62 61 61 61 60 60 58 58 56 55 55 56 56 58 57 57 57 57 57 57 56 55
58 58 58 57 55 56 56 56 56 56 56 58 58 58 57 57 57 57 58 59 59 60 60 60 60 61 61 61 61 60 60 60 60 60 59 60 60 60 61 60 61 59 60 59 60 59 58 59 58 56 54 55 53 54 57 55 57 58 58 59 59 57 57
58 58 57 57 56 56 57 57 57 57 57 58 57 57 56 57 57 57 58 58 58 59 59 59 59 60 60 61 60 60 60 60 59 59 59 59 60 61 60 59 60 59 58 59 59 60 59 59 58 58 53 52 54 55 55 55 56 58 59 58 58 59 58
58 57 57 58 57 57 56 57 57 56 58 57 57 57 57 56 56 57 57 57 58 58 58 59 59 59 60 60 61 60 59 59 59 59 58 58 59 58 59 60 59 58 58 58 59 61 63 62 60 58 57 53 52 53 53 54 55 55 57 58 58 60 58
59 57 57 58 57 58 57 58 57 56 57 56 56 57 57 56 56 56 57 56 57 58 58 58 58 59 59 59 58 58 57 58 58 58 57 58 59 58 59 58 60 59 58 58 60 60 62 62 61 59 60 58 54 51 51 54 54 54 56 59 59 59 59
57 57 58 57 57 57 57 57 57 56 56 56 57 56 55 54 54 56 56 56 56 57 57 57 57 57 58 58 57 56 56 56 57 57 56 58 58 58 58 59 60 59 57 58 59 59 59 60 61 60 62 60 58 55 51 51 53 52 58 56 59 61 59
58 58 58 58 57 57 56 56 56 57 56 57 57 57 55 55 56 57 55 55 55 56 56 57 57 57 57 56 55 55 55 55 55 55 56 56 55 57 56 57 58 59 57 59 59 58 59 59 59 60 59 59 60 57 53 53 53 52 56 55 55 61 57
57 57 58 58 57 57 56 56 56 56 55 56 57 56 55 54 54 54 54 54 55 55 55 56 56 56 56 56 56 55 54 55 56 54 55 56 55 56 56 56 55 57 56 58 58 58 58 58 58 58 57 58 58 58 57 55 54 55 55 58 57 57 60
58 58 58 57 57 57 57 56 55 55 56 56 54 54 54 54 54 54 54 54 55 55 55 54 55 55 55 55 55 56 54 55 56 55 55 55 56 55 55 56 55 56 55 57 58 58 58 58 58 58 57 57 54 55 56 55 55 57 54 58 58 58 57
57 57 56 57 57 56 56 56 56 56 55 55 54 54 54 53 53 54 54 55 55 55 55 55 54 55 55 54 54 54 54 55 56 55 56 55 55 56 56 55 54 54 55 57 57 57 58 58 57 57 57 57 55 55 57 53 54 54 57 53 53 57 57
57 57 57 56 56 56 56 56 55 55 56 54 54 55 54 53 53 54 55 54 54 54 54 54 53 54 55 55 54 55 54 55 55 54 55 55 55 55 54 55 54 54 55 57 57 59 59 58 59 58 58 58 58 56 56 55 53 54 56 56 57 55 56
57 57 57 56 56 56 56 55 56 56 55 53 53 54 53 53 53 53 53 53 53 53 53 53 53 54 54 55 55 54 54 54 56 56 56 55 55 54 55 54 54 54 55 56 56 57 57 59 59 60 58 58 58 56 57 56 54 55 56 56 56 58 56
56 57 57 56 56 55 55 55 55 55 54 53 54 52 52 52 52 53 53 53 53 53 53 53 53 53 53 54 55 54 53 53 54 55 56 55 55 55 55 55 54 54 56 55 55 56 56 57 58 59 58 56 57 57 57 54 57 54 55 57 56 60 57
56 56 56 56 56 55 55 55 55 55 53 53 53 53 52 51 52 53 54 54 53 53 53 52 53 53 52 52 53 54 53 53 53 53 54 54 55 54 55 56 54 54 55 56 54 55 55 56 58 57 58 57 57 56 56 57 57 54 56 57 57 55 54
56 56 56 56 56 56 55 55 54 53 54 54 52 52 52 53 54 52 52 52 53 52 52 52 53 53 53 52 52 52 53 53 53 53 53 53 54 53 55 54 54 54 56 57 56 55 55 56 55 56 57 57 58 56 56 55 55 56 58 58 57 56 54
55 55 56 55 55 55 55 54 55 54 53 54 54 53 52 53 53 52 52 52 53 52 52 52 52 52 52 52 53 53 53 52 52 53 53 53 54 53 53 54 53 53 55 56 56 55 55 54 55 55 56 55 57 57 55 56 56 57 57 56 55 56 57
55 55 55 55 54 54 54 54 54 53 54 54 54 54 54 54 53 53 52 52 52 52 52 52 51 51 52 52 53 53 53 54 54 54 54 54 53 53 53 53 53 53 54 54 56 55 56 56 55 55 54 55 55 56 56 54 54 55 55 55 56 55 53
55 55 55 54 53 53 53 53 53 53 54 53 54 53 53 54 54 54 53 53 53 53 53 53 53 53 53 53 53 54 53 54 54 55 55 55 54 54 54 53 53 52 55 56 53 53 54 55 57 56 53 54 55 55 55 54 55 54 54 54 54 52 53
55 55 55 54 54 54 53 53 53 53 52 52 53 53 53 53 54 54 55 54 53 53 53 53 54 52 52 55 52 54 53 53 54 54 55 56 55 54 54 53 54 58 56 55 52 49 48 50 54 58 56 55 55 55 55 54 54 55 55 54 55 53 53
53 53 53 53 53 54 54 54 54 53 53 52 52 52 52 52 51 52 53 54 54 53 53 54 49 46 45 48 52 53 54 53 53 54 54 55 56 57 56 55 53 55 57 55 55 48 46 46 46 48 50 52 55 58 55 54 54 54 54 56 53 52 54
50 50 51 51 51 51 51 52 52 52 53 53 53 53 53 52 52 51 51 52 52 53 53 49 43 44 45 45 47 52 53 54 54 53 54 54 55 55 56 56 56 55 56 55 55 54 50 46 45 46 46 46 47 49 51 57 56 52 53 55 53 54 54
49 49 49 50 50 50 50 49 49 49 49 51 52 51 51 52 52 52 52 52 52 51 51 43 40 40 41 42 44 47 53 53 54 54 54 54 54 55 55 55 55 55 56 56 57 55 55 54 47 46 47 46 46 45 45 43 45 56 56 56 56 54 53
48 49 49 49 49 50 49 48 47 47 48 49 48 49 49 50 50 51 51 51 51 51 51 44 41 41 41 40 41 45 52 53 53 54 54 55 55 55 55 55 56 57 56 56 56 54 55 54 53 52 52 52 53 49 44 45 43 43 50 57 56 57 56
48 48 49 49 49 49 48 48 47 47 46 46 46 46 46 47 48 48 48 49 49 49 48 41 40 40 41 40 40 44 49 50 52 53 53 53 54 54 55 55 55 56 56 55 54 54 54 54 53 53 53 53 52 52 52 51 52 52 52 52 53 55 55
46 47 48 47 47 47 48 47 46 46 48 47 46 46 46 46 45 46 46 47 47 47 47 41 41 41 41 41 43 50 49 50 50 51 52 53 53 53 54 54 54 54 55 54 51 46 49 53 53 53 53 53 51 49 49 46 43 43 49 52 54 55 55
45 45 46 45 45 46 46 46 45 45 45 46 46 45 44 44 45 45 46 46 45 45 46 43 41 41 41 41 45 49 50 50 50 50 51 52 53 53 54 55 54 54 54 55 50 45 43 47 53 53 53 53 53 51 49 46 41 40 40 41 42 43 44
46 46 45 44 43 43 44 46 45 45 44 43 44 45 45 44 44 44 44 44 46 44 45 44 41 41 41 41 44 48 49 49 50 51 51 52 52 53 53 52 54 55 54 54 47 44 41 48 54 54 54 53 53 51 50 47 46 44 40 40 39 39 39
45 45 44 44 44 43 43 43 44 44 44 44 43 44 45 44 44 44 43 43 46 44 43 44 41 40 40 41 44 47 47 48 48 49 51 51 52 52 52 51 50 50 52 51 45 43 41 47 55 54 54 54 54 54 54 49 47 47 47 47 46 46 45
45 45 44 45 45 44 44 43 42 42 43 44 43 43 43 42 41 42 42 42 42 42 43 43 43 40 41 40 41 45 46 46 46 47 48 49 50 51 52 52 51 45 42 42 43 43 41 42 53 54 53 52 52 53 53 47 47 48 48 48 46 46 45
44 43 43 43 44 44 44 43 43 42 41 42 42 41 42 42 41 41 41 41 41 42 43 43 43 40 40 40 40 41 44 44 45 46 46 47 48 49 50 51 51 47 43 42 41 42 42 41 43 52 53 53 54 53 45 49 47 44 48 46 45 45 45
43 44 43 43 42 41 42 43 43 42 42 42 42 41 41 41 41 41 41 41 41 41 43 43 42 42 40 40 40 40 42 43 42 43 44 45 47 48 49 50 50 48 44 42 41 41 42 42 42 46 50 45 45 41 49 49 47 47 47 46 46 45 45
43 44 43 42 41 41 41 41 41 41 41 41 41 40 40 40 40 40 41 41 41 41 41 42 42 42 41 40 40 40 39 40 37 41 43 43 45 46 48 49 49 46 42 42 41 41 41 41 42 45 43 42 42 41 43 47 46 46 46 46 45 44 44
40 40 41 40 40 40 40 40 40 40 39 39 39 40 39 39 39 39 39 39 40 41 41 40 41 40 41 40 39 39 39 38 38 40 41 42 44 45 45 46 46 42 41 40 40 40 40 40 44 42 40 41 41 41 46 45 45 46 45 44 44 43 43

ECMWFFLT1_sfc_temp_033.txt.gz
Temp
71 70 69 68 67 67 66 66 67 66 67 69 69 69 70 71 70 68 69 69 69 70 70 71 71 72 73 74 72 73 71 71 70 70 69 68 66 67 69 70 70 72 73 72 73 70 66 62 61 64 64 63 65 66 68 69 69 68 67 69 71 71 70
71 71 71 70 68 67 66 66 67 68 68 68 69 69 71 72 71 69 69 70 69 69 71 71 71 72 71 71 70 70 70 70 71 69 66 64 66 65 66 67 70 71 72 71 71 72 68 64 62 61 59 63 66 67 67 68 68 68 69 69 71 71 70
70 70 72 70 70 70 68 67 68 69 70 70 70 70 69 72 72 72 70 70 70 69 70 70 70 68 69 69 69 68 69 69 70 69 69 67 69 68 69 69 69 69 70 69 70 69 70 70 65 63 63 63 62 64 66 67 68 69 70 69 70 73 71
69 69 70 69 70 70 69 69 70 70 71 71 71 71 70 70 69 71 70 70 71 70 70 72 71 71 70 68 68 68 68 68 67 67 68 70 69 70 70 72 71 71 69 68 68 70 69 66 65 64 65 68 65 62 64 67 69 71 72 70 70 70 70
69 70 70 68 69 69 69 69 70 70 70 70 70 70 69 70 70 70 69 70 71 71 71 72 72 73 70 70 67 67 67 66 66 65 66 68 69 71 71 73 68 69 71 73 73 72 70 69 68 65 65 67 67 68 68 67 70 71 71 72 72 71 71
71 71 70 69 70 70 70 70 70 70 70 70 70 70 70 69 70 69 69 70 71 71 72 72 72 72 71 71 68 66 66 65 66 68 66 67 70 70 72 72 68 69 71 74 74 73 73 72 70 66 68 69 64 65 69 70 68 72 72 72 73 73 73
70 70 71 70 70 71 71 71 71 71 71 71 71 71 70 70 70 70 70 70 72 73 72 71 72 72 71 71 68 67 68 68 68 67 68 71 71 71 73 72 72 70 72 73 74 73 71 71 69 68 66 66 67 67 69 70 70 69 69 73 73 74 73
71 71 71 71 70 70 70 71 71 72 72 72 72 71 70 70 69 69 69 69 70 71 72 71 71 71 71 70 70 69 70 71 70 70 71 70 70 70 70 72 72 72 72 74 74 74 75 73 71 68 67 63 63 65 65 69 69 69 70 71 73 73 72
71 71 70 70 71 71 70 71 70 70 71 71 70 70 69 70 69 69 70 70 70 70 70 70 71 72 72 71 71 71 70 71 70 69 70 70 70 70 70 71 72 73 72 73 75 75 77 75 73 71 71 69 64 60 64 64 67 68 71 70 71 73 73
69 69 69 69 69 69 70 70 71 70 69 71 70 69 68 69 69 70 71 70 70 70 70 70 71 71 71 71 71 70 70 70 71 71 71 71 71 70 71 70 72 72 72 72 73 74 74 74 74 73 75 72 71 66 62 62 63 66 68 72 69 71 74
70 70 70 69 69 68 68 69 69 69 70 70 70 69 69 69 68 68 70 69 69 70 70 71 72 71 71 71 71 71 71 71 70 70 70 72 70 71 71 71 73 73 72 72 72 72 72 72 73 74 74 75 74 70 67 65 64 68 68 70 73 72 73
70 70 70 70 69 69 68 69 69 69 69 69 70 69 69 70 69 69 69 69 69 69 69 70 70 70 71 71 70 70 68 70 71 70 69 69 70 70 70 70 71 72 70 71 71 71 71 72 73 74 74 74 74 73 70 70 65 68 72 67 70 75 74
70 69 69 68 69 70 69 69 68 67 68 70 70 70 71 70 70 70 69 69 69 69 70 69 70 70 70 71 70 71 69 69 71 70 70 69 70 70 70 70 71 71 70 71 71 71 71 72 72 74 72 72 72 72 72 71 69 67 69 71 72 73 74
67 69 68 69 69 69 68 68 69 69 69 69 69 70 70 70 71 70 70 70 70 69 69 68 69 70 70 69 69 69 69 70 71 70 69 68 69 69 71 72 71 70 70 71 71 71 72 72 71 71 72 72 72 71 72 71 70 68 68 69 71 73 73
68 68 68 68 69 69 68 68 67 68 68 68 70 71 71 69 70 70 70 70 70 71 70 70 69 70 70 68 67 68 69 70 70 70 69 70 69 69 69 70 70 69 70 72 71 74 73 73 74 73 72 72 73 71 72 74 72 70 67 67 69 72 71
67 67 67 68 68 68 67 67 68 68 69 68 68 71 70 70 69 70 70 70 70 70 70 70 69 70 70 70 70 68 69 70 70 69 70 70 72 70 69 68 68 67 67 69 70 72 72 73 75 75 73 74 73 72 74 75 72 70 69 68 70 70 70
66 67 67 67 67 67 67 66 67 68 69 69 70 68 69 71 70 70 70 70 70 70 70 69 70 71 72 72 71 71 70 70 70 72 72 72 72 72 70 68 67 67 68 68 69 70 71 72 72 74 73 72 72 71 72 71 73 73 72 70 69 73 73
65 66 66 67 66 66 67 67 68 69 68 69 70 70 69 70 71 71 70 71 71 71 71 71 71 70 69 69 71 71 71 71 71 71 71 71 68 72 71 70 68 69 68 68 67 69 70 69 73 73 73 74 73 72 70 71 73 73 71 70 70 72 73
63 63 64 64 65 66 67 68 68 68 71 70 69 70 71 71 73 73 73 72 73 72 72 71 72 72 71 70 70 70 70 71 71 71 70 70 71 70 70 71 69 69 70 69 68 69 69 70 72 71 73 74 75 72 69 69 70 71 72 73 72 69 69
62 63 63 63 64 66 67 68 69 69 69 70 70 70 70 71 70 72 72 71 72 71 72 72 71 70 71 72 71 71 70 70 70 70 70 70 70 69 70 70 69 69 70 71 70 69 69 69 69 70 71 70 73 71 68 70 72 71 70 71 72 72 70
62 62 64 65 65 65 66 67 68 69 69 69 70 71 70 70 70 71 70 71 70 70 70 70 71 71 72 71 71 71 70 70 70 70 69 70 69 70 69 69 70 70 70 71 72 71 69 70 69 69 69 69 70 68 69 69 69 70 69 69 70 69 71
60 59 61 62 62 63 64 66 67 68 68 69 68 70 69 70 69 70 70 69 70 69 69 68 70 70 71 70 72 70 70 71 71 71 71 71 70 70 71 70 70 71 67 60 54 58 61 62 71 71 69 69 68 68 69 69 69 69 70 69 69 70 69
59 59 59 59 59 61 63 64 65 65 66 66 67 67 68 67 68 68 69 69 67 65 64 62 52 45 49 66 69 71 69 70 72 72 71 71 70 70 71 71 69 60 57 55 52 49 48 50 55 65 71 70 69 69 69 68 69 70 70 69 69 69 67
57 57 57 57 58 60 61 62 62 63 63 63 64 65 66 67 67 67 68 67 65 61 56 51 40 42 43 46 63 66 68 69 69 70 71 71 71 71 70 71 71 62 59 57 58 45 47 46 47 47 49 56 62 70 70 68 69 69 69 69 70 69 68
55 55 56 55 56 57 58 60 60 60 60 60 61 63 63 64 64 65 65 63 60 57 51 41 40 41 41 41 49 65 67 67 67 68 69 70 72 72 71 70 69 68 69 70 71 66 55 45 45 45 45 46 47 48 52 67 70 68 67 68 68 68 68
55 55 55 55 55 55 56 56 57 57 57 58 59 59 60 60 61 62 62 61 59 57 53 41 40 40 40 40 40 56 70 68 68 68 67 68 68 68 69 68 69 68 70 59 63 69 70 65 47 42 44 43 44 44 45 45 50 69 72 68 68 68 68
54 54 54 55 55 55 55 54 55 56 57 57 57 57 57 57 58 59 59 59 57 55 52 43 41 40 41 40 42 54 67 65 65 66 66 67 67 67 67 67 68 68 69 68 68 68 69 68 68 64 62 64 66 55 43 43 43 43 54 69 70 69 70
53 53 53 53 54 53 53 54 54 55 55 55 55 55 56 56 55 56 57 57 56 53 49 41 41 41 41 41 43 53 64 64 65 65 64 64 64 64 65 65 65 66 67 67 68 65 67 68 68 66 67 67 68 68 66 64 64 66 65 66 69 71 71
53 54 53 52 51 51 51 52 52 53 53 53 53 54 55 55 55 56 56 56 56 54 50 40 40 41 41 42 47 62 63 63 64 64 64 64 64 65 65 64 65 65 66 66 59 47 52 64 66 66 66 67 68 67 67 58 49 50 57 65 68 68 68
50 51 50 48 48 49 50 50 50 52 51 50 50 49 49 50 52 53 54 55 55 54 52 43 39 40 41 41 51 61 61 63 63 62 62 62 64 64 64 64 64 65 64 65 54 46 44 46 64 65 65 66 66 67 66 61 43 40 40 40 39 40 40
50 49 48 47 46 46 47 48 47 49 48 47 47 48 49 49 49 49 50 52 53 54 53 45 39 40 40 40 47 59 60 61 60 60 61 62 63 64 61 52 56 63 63 66 49 45 44 50 62 64 65 64 65 65 66 64 59 55 39 40 39 39 40
48 48 48 49 49 47 46 46 48 49 48 47 47 48 49 48 47 47 48 49 48 51 53 49 41 39 39 40 49 58 59 60 59 58 60 61 61 62 62 58 51 52 55 51 40 41 41 49 62 64 65 65 64 64 66 67 62 60 59 58 57 56 55
46 46 47 48 50 50 51 50 48 46 46 46 44 45 45 45 45 45 47 49 49 50 51 52 47 39 40 40 40 53 57 57 56 56 57 58 58 60 60 61 58 44 41 41 40 39 40 40 56 62 63 63 63 64 67 67 65 64 62 60 61 60 61
49 49 49 48 48 49 51 50 51 51 50 49 46 44 43 43 43 44 45 47 49 49 49 51 50 39 39 39 39 43 56 53 54 54 55 56 58 57 59 59 60 49 41 41 40 39 40 40 41 55 59 61 63 62 58 65 62 49 61 61 60 59 59
49 49 50 51 51 50 51 52 51 52 53 52 50 49 47 46 45 44 45 46 47 48 48 45 49 43 39 39 38 39 50 51 47 50 51 55 56 57 57 57 57 49 40 39 39 39 39 40 39 49 54 47 45 43 57 60 62 59 59 60 60 59 59
49 49 49 50 50 50 51 51 51 51 51 50 50 50 50 50 49 49 48 49 48 48 48 47 42 45 41 38 38 39 37 43 38 47 50 50 52 53 54 54 54 44 38 38 38 38 38 38 40 48 43 41 41 40 44 58 59 58 58 58 58 58 58
49 49 49 49 49 49 49 50 50 50 50 50 50 50 51 50 50 50 50 50 51 51 51 50 46 41 42 39 38 38 38 37 37 45 47 49 51 51 52 52 48 39 38 38 37 38 38 38 44 41 40 40 39 40 52 55 56 57 55 54 54 56 57

ECMWFFLT1_sfc_temp_036.txt.gz
Temp
76 75 76 76 77 77 76 75 76 75 76 76 76 77 78 78 77 76 76 75 75 76 75 76 76 78 79 80 77 77 76 76 71 66 67 68 63 64 73 73 74 76 75 75 77 72 68 64 64 70 73 73 74 74 76 77 77 75 74 77 80 79 78
78 77 77 76 75 75 73 74 74 76 75 76 77 77 77 78 76 76 76 76 75 76 76 77 77 79 77 76 75 75 74 74 71 70 69 68 67 69 71 72 75 76 75 76 73 69 71 67 66 66 67 71 72 73 74 75 76 76 77 77 79 79 77
77 77 77 74 74 74 73 74 75 75 76 76 77 78 78 79 77 77 76 76 75 76 76 77 77 76 76 76 75 75 74 74 73 72 71 72 74 71 73 69 73 74 74 74 75 75 75 74 68 69 69 68 67 70 73 73 75 76 77 76 78 81 78
75 75 75 74 75 74 73 73 74 76 77 77 77 76 77 78 77 77 76 76 76 76 76 78 76 77 76 75 75 74 74 73 73 73 73 74 74 75 68 70 70 73 71 68 72 74 74 71 70 69 71 75 71 68 71 74 76 78 79 77 78 78 78
76 76 74 74 75 76 75 75 76 76 76 77 76 76 76 77 76 77 75 75 76 75 76 78 78 78 77 77 76 74 74 73 74 73 73 73 74 75 74 67 68 68 67 64 65 73 74 72 71 70 69 74 75 75 75 73 78 78 79 79 80 78 78
76 77 76 76 76 76 76 76 76 76 76 75 76 76 76 76 77 76 76 75 74 75 75 76 76 78 76 76 75 74 74 73 74 74 74 73 73 72 69 71 71 72 68 71 66 67 74 73 73 70 73 76 71 72 75 75 74 79 79 79 80 80 80
77 77 77 77 77 78 78 76 77 77 77 76 76 76 77 78 78 77 76 76 77 76 75 75 75 76 76 77 74 74 74 74 74 73 73 73 72 72 67 66 70 72 74 76 72 74 73 74 73 72 71 73 73 74 77 77 78 76 77 81 81 81 80
78 77 78 78 78 78 78 77 77 78 77 77 77 77 78 77 77 77 76 76 77 76 76 76 76 76 75 76 74 73 74 76 75 74 74 73 72 71 66 65 66 70 72 74 70 78 80 77 76 73 72 68 69 72 72 77 77 76 75 78 81 80 80
78 78 78 79 78 78 78 78 77 77 78 78 78 77 77 77 76 77 77 77 77 77 76 76 76 76 74 75 74 73 73 76 74 73 74 73 71 70 68 65 66 70 73 73 77 80 81 79 77 76 74 74 70 67 71 71 74 75 79 76 79 80 79
77 77 77 77 77 77 77 77 77 77 77 77 76 77 76 77 77 77 78 77 76 76 76 76 76 76 76 75 73 72 71 75 75 76 72 72 71 73 72 73 67 68 74 74 80 80 77 76 78 77 79 76 75 71 68 68 70 71 75 79 75 77 80
78 77 77 77 77 77 76 77 77 76 77 77 77 76 76 76 76 77 77 76 76 76 76 76 78 78 76 75 73 71 72 75 76 76 72 72 73 77 76 74 71 78 78 78 79 79 76 74 77 79 79 81 79 74 72 69 69 74 74 77 79 77 79
78 78 78 78 77 76 76 76 76 76 76 77 77 76 76 76 76 76 76 76 76 76 76 76 76 76 77 76 76 76 77 76 76 76 76 77 77 77 76 75 76 77 77 77 78 77 78 79 79 79 80 80 79 77 75 74 69 73 78 73 78 81 79
79 78 78 77 76 77 77 76 76 76 76 77 77 76 76 76 76 76 76 76 76 77 76 76 77 77 76 76 76 76 77 77 77 76 76 77 78 77 76 75 76 77 77 78 77 77 78 79 78 79 79 79 78 78 77 76 72 70 76 76 77 80 80
77 78 78 77 77 77 77 77 77 77 77 76 77 76 76 77 78 77 77 77 77 76 76 75 76 76 75 75 76 76 77 77 77 77 77 75 77 76 77 77 77 77 78 77 77 78 79 79 79 79 80 80 78 78 78 76 74 72 74 78 77 79 80
77 78 77 77 77 77 77 76 76 77 76 76 77 78 78 76 77 77 78 77 76 77 76 77 76 76 76 75 74 76 76 77 77 77 76 76 76 77 76 77 77 77 78 78 77 80 79 79 80 81 80 79 80 78 79 79 78 74 70 74 76 80 79
77 76 76 76 76 77 76 76 77 76 76 76 77 78 77 77 77 78 77 76 77 77 76 76 76 76 76 76 76 76 76 77 76 76 75 76 78 78 76 76 76 76 77 76 76 79 79 80 83 82 80 81 79 79 81 81 78 75 72 73 75 77 77
76 76 76 76 76 76 76 76 77 76 77 77 77 77 77 78 77 77 76 76 77 76 77 75 76 78 78 78 78 77 77 77 77 78 78 79 80 79 77 76 76 76 76 75 77 78 79 80 80 81 80 80 79 79 79 78 78 78 76 74 75 79 79
75 75 75 76 75 75 76 76 76 77 76 76 77 76 77 78 78 78 75 77 78 77 77 78 77 77 76 77 78 78 78 78 78 78 78 78 75 78 77 76 77 77 76 75 75 76 77 77 80 80 79 81 80 79 78 78 78 79 76 75 74 78 80
74 74 74 74 74 75 75 76 76 76 78 77 76 76 77 78 79 79 79 79 79 79 80 78 79 78 78 77 77 77 78 78 78 79 78 78 79 78 77 77 76 77 77 76 75 76 76 76 78 78 79 80 82 80 76 77 77 77 78 77 76 75 77
72 72 72 72 73 75 76 76 76 77 77 76 76 76 76 77 77 78 79 78 78 78 78 79 78 77 78 78 77 77 76 76 76 77 78 78 78 78 79 79 77 77 77 77 76 76 76 75 75 76 77 76 80 79 76 76 78 77 76 75 77 77 76
71 71 71 71 72 73 74 75 76 76 76 76 76 77 76 76 76 78 77 78 78 77 77 78 78 78 79 77 76 76 76 75 76 76 76 77 77 78 78 78 78 78 78 79 78 77 76 76 76 76 76 77 77 76 75 75 75 76 76 75 75 76 77
70 70 70 70 70 70 71 73 74 76 76 76 76 77 77 77 76 77 77 76 77 76 74 72 71 68 75 77 77 76 76 77 76 76 76 77 77 77 78 78 78 79 72 62 52 59 61 63 76 76 76 76 76 75 75 76 75 75 75 74 74 75 75
69 68 68 67 67 66 67 70 73 74 75 75 76 76 76 76 77 76 76 75 73 71 68 64 49 42 46 70 78 78 76 76 77 77 76 76 76 77 77 78 74 57 56 55 55 51 51 53 55 66 75 78 76 75 75 74 75 75 74 73 74 73 72
64 63 64 64 64 63 63 65 68 71 71 73 73 74 75 75 75 75 75 72 69 66 62 54 41 39 42 41 65 74 75 76 76 76 76 75 75 76 76 78 77 68 65 62 62 45 48 47 49 48 48 50 57 70 75 73 74 74 74 73 75 74 73
63 62 62 63 64 63 63 63 64 66 66 68 70 72 71 72 72 72 70 70 67 64 58 44 38 41 40 39 45 68 75 75 74 75 76 76 78 77 76 76 76 76 76 74 76 72 59 47 45 46 45 46 48 46 47 65 72 73 73 72 72 73 73
60 60 61 62 62 62 62 62 63 62 63 66 68 68 69 68 68 69 68 66 65 62 59 41 41 40 41 40 41 51 78 75 75 75 75 75 75 76 76 75 75 74 77 60 69 75 76 72 49 41 46 45 44 44 46 45 46 64 73 72 71 71 73
56 56 56 60 62 62 60 60 60 62 65 66 65 65 65 64 65 65 65 63 61 59 55 43 40 40 42 39 41 47 77 73 74 74 74 74 74 74 74 75 74 74 75 74 74 74 75 75 74 70 68 70 73 63 45 44 44 42 51 68 72 72 74
57 57 59 60 60 60 58 58 61 63 64 64 64 64 64 63 63 64 64 63 61 57 52 39 40 40 41 41 40 48 74 72 73 73 72 72 72 71 72 72 73 73 74 74 70 64 71 73 74 73 73 73 74 74 75 73 71 72 71 70 72 74 74
57 59 59 59 59 59 59 60 59 60 61 62 63 63 63 64 63 63 63 63 62 59 54 39 39 40 40 41 43 69 71 72 71 72 71 71 72 73 72 72 72 72 72 72 52 44 50 63 70 71 71 73 73 74 75 68 62 64 70 73 75 75 75
54 55 55 57 59 59 60 60 60 61 59 59 58 59 60 61 62 61 61 62 61 59 56 44 39 40 41 38 51 71 70 72 71 70 70 70 72 71 71 70 70 71 71 63 42 41 42 45 67 69 70 71 72 72 72 73 51 46 46 43 41 39 39
53 54 54 54 54 56 58 59 58 58 58 57 56 57 58 59 59 59 58 57 58 58 54 45 39 40 40 38 47 67 70 71 69 69 70 70 71 72 65 51 60 68 68 61 40 40 38 49 64 68 70 68 69 70 71 73 69 62 44 42 44 42 43
52 52 52 52 52 52 52 51 52 54 54 55 55 56 56 56 55 56 57 56 52 56 57 50 40 39 39 40 48 64 68 70 68 67 69 70 70 71 69 59 49 53 56 48 38 40 38 47 61 66 67 65 66 63 68 69 70 69 66 64 64 62 58
49 51 52 53 52 50 51 50 51 50 48 49 52 53 54 52 52 51 53 55 55 56 56 56 47 38 39 41 39 54 66 65 65 64 66 67 67 69 69 66 50 39 39 38 39 37 40 37 52 60 64 66 66 67 70 70 71 70 70 69 70 69 67
51 52 51 48 49 52 53 54 54 54 53 53 53 52 51 52 52 52 51 51 52 53 53 54 50 38 40 39 39 43 63 61 61 62 63 65 66 67 68 69 67 41 38 37 38 37 38 38 39 51 58 63 66 57 50 64 66 57 67 68 67 67 69
53 53 54 52 50 51 55 56 56 57 58 57 56 56 56 56 56 54 53 50 50 50 50 47 53 42 39 39 38 38 53 55 51 56 58 63 64 65 65 65 66 45 37 38 38 37 37 38 38 47 54 47 43 42 55 57 61 65 66 67 68 67 67
53 55 54 55 55 54 56 56 57 57 57 56 55 56 57 57 58 59 58 58 56 54 54 51 43 50 40 39 37 39 36 44 39 49 55 57 58 59 60 60 55 41 40 38 38 38 38 38 39 47 42 41 41 40 43 56 58 59 61 63 63 63 64
53 54 55 55 54 54 54 56 57 57 57 58 58 57 58 58 59 59 59 59 60 60 60 60 46 41 47 38 39 39 37 37 38 49 51 53 56 57 56 55 51 42 39 38 36 37 38 38 43 40 39 38 38 39 49 52 55 55 56 57 59 61 62

ECMWFFLT1_sfc_temp_042.txt.gz
Temp
69 68 68 68 69 69 68 68 68 69 72 73 72 73 73 73 72 72 72 72 72 74 73 72 70 70 69 70 69 71 69 67 64 64 65 65 63 62 65 66 67 69 68 67 68 64 61 58 61 67 69 68 68 69 72 72 71 68 69 69 71 71 69
71 70 70 69 68 68 67 68 68 69 71 73 75 74 73 74 73 73 73 73 71 72 74 74 71 71 71 68 68 67 67 67 66 67 66 65 65 63 64 63 65 64 66 66 65 66 62 60 60 62 62 66 66 66 68 70 70 69 69 69 71 72 69
70 70 69 67 66 66 66 65 66 65 68 71 71 74 74 74 74 74 73 73 72 73 74 71 71 70 69 69 69 69 69 66 66 67 66 65 65 66 66 64 62 62 62 63 64 62 61 62 61 62 63 62 59 63 66 66 68 69 71 69 70 73 71
70 69 67 66 66 64 65 65 65 65 67 70 70 72 71 73 74 74 73 74 73 73 73 71 69 70 69 67 67 68 68 68 67 65 65 65 65 65 66 65 63 63 62 61 61 61 61 58 59 63 65 67 64 61 64 68 69 71 71 69 70 71 70
70 69 65 65 66 65 66 65 65 65 68 71 71 72 72 72 72 71 73 73 73 73 72 70 68 68 70 68 66 66 68 68 66 65 65 64 65 65 66 65 64 65 64 63 63 63 61 61 62 63 64 67 67 66 70 67 71 71 71 71 72 71 70
70 70 68 68 68 66 66 66 66 66 70 70 70 71 71 73 72 71 70 69 70 70 71 70 68 68 69 68 66 67 67 67 66 65 65 65 65 65 65 66 66 66 65 64 65 64 63 63 64 63 68 70 62 63 67 67 66 71 72 71 73 72 70
68 68 70 72 71 70 69 69 71 70 70 71 71 71 72 74 73 73 71 70 70 70 71 71 71 71 69 69 69 68 67 67 66 65 65 65 65 66 67 65 66 66 64 64 65 65 64 63 62 64 64 65 66 66 68 68 70 68 69 73 73 73 71
69 69 71 73 73 72 73 73 72 72 71 72 72 72 74 73 73 73 74 73 72 70 72 71 70 69 68 68 67 68 66 66 67 65 65 65 66 66 67 66 67 66 65 64 66 67 68 66 66 66 65 61 61 62 62 68 69 69 68 70 75 72 70
70 71 72 73 73 73 73 73 72 72 73 72 73 73 73 74 73 73 74 73 73 72 72 72 70 68 69 66 67 67 66 69 66 65 64 65 65 65 66 66 66 66 66 65 67 68 69 69 68 67 67 66 60 59 60 60 64 66 73 69 71 72 70
71 72 72 73 73 74 74 73 73 73 73 72 73 74 73 74 73 73 73 73 72 73 71 71 70 68 68 66 68 67 67 66 64 65 65 64 64 64 64 65 65 66 68 68 69 69 69 68 69 68 69 66 65 61 58 57 59 60 69 72 66 68 72
73 72 72 73 73 73 73 72 72 72 72 73 73 73 73 73 73 75 73 72 72 72 72 72 72 71 70 68 67 66 65 65 64 64 64 65 63 64 64 65 66 67 69 69 68 69 68 67 67 68 68 69 67 64 61 57 58 63 63 67 70 68 71
72 72 72 73 73 73 72 72 72 72 72 72 72 71 72 72 72 73 72 72 72 72 72 72 72 70 70 68 69 65 64 65 65 63 64 64 65 66 65 66 68 67 68 68 68 69 68 67 67 67 68 70 69 67 65 61 58 63 67 63 67 73 70
73 74 74 73 73 74 74 74 73 72 72 73 72 73 72 73 72 72 72 72 72 72 72 72 72 72 71 70 69 69 69 69 68 65 63 64 65 68 68 68 68 68 68 68 68 68 67 68 68 69 70 69 68 67 66 63 61 61 65 64 67 71 72
73 74 74 74 73 73 73 73 73 72 73 71 72 73 73 72 73 73 73 73 73 72 72 71 72 71 71 69 69 70 71 70 69 66 67 66 68 69 69 69 69 69 69 68 67 68 69 69 69 69 70 69 67 67 67 64 62 62 66 66 66 70 72
74 74 73 73 73 74 73 72 72 73 72 72 74 75 74 73 73 74 73 73 73 73 73 72 72 72 71 69 68 72 70 70 68 66 66 69 69 70 68 68 69 69 70 69 68 71 71 71 72 72 71 70 68 69 69 68 65 61 62 65 66 71 69
74 73 73 72 73 74 73 73 74 72 72 72 73 74 73 73 74 73 73 73 73 72 73 72 71 72 71 70 70 70 70 69 67 66 66 68 71 69 67 67 67 68 69 67 67 69 71 73 75 75 72 72 69 68 71 72 67 63 62 63 65 68 68
72 72 72 72 73 73 73 73 74 73 74 73 75 72 73 74 74 72 72 72 72 72 72 72 72 73 73 72 71 71 70 70 70 70 70 71 70 68 68 67 67 67 68 67 68 69 70 71 69 70 71 69 69 70 68 66 70 66 64 63 65 70 69
72 72 71 72 72 73 73 73 73 74 72 73 74 72 73 75 74 73 72 73 73 72 72 73 72 72 72 72 72 71 71 71 70 70 70 71 71 70 67 67 68 65 63 65 68 68 69 68 73 71 70 71 71 70 70 68 69 69 66 64 64 67 69
71 72 72 72 72 72 73 73 73 73 75 73 72 73 72 73 76 75 74 74 74 74 74 73 73 72 72 73 71 72 71 70 70 71 71 72 72 70 68 68 66 66 66 65 66 67 68 69 72 71 72 72 74 71 68 67 68 67 68 67 65 64 65
71 72 72 72 72 73 73 73 74 74 74 73 72 72 74 74 74 74 75 75 74 70 68 67 68 71 73 73 72 71 71 71 73 71 72 72 73 71 71 70 67 66 65 66 65 66 66 68 68 67 68 68 74 70 66 68 70 69 66 66 66 65 63
71 72 72 72 73 73 73 73 73 73 73 72 72 73 72 73 72 74 73 71 67 67 65 62 60 62 68 70 70 70 70 69 70 70 70 72 71 71 71 71 70 69 68 67 67 68 66 65 67 68 67 69 68 67 66 67 67 68 67 66 65 64 66
71 71 72 72 72 71 72 72 72 72 71 71 72 72 73 73 74 74 70 67 66 62 60 56 53 50 58 65 70 71 70 71 69 69 70 70 70 70 71 68 66 65 62 58 54 55 56 59 66 65 64 66 66 66 64 65 66 66 65 65 63 65 65
66 71 71 71 71 71 71 71 71 71 71 72 71 71 72 73 73 71 67 66 62 60 56 54 46 44 45 55 65 70 70 70 71 70 69 69 69 71 69 67 65 60 58 57 53 50 49 51 56 61 62 63 63 65 64 64 64 66 65 64 63 64 62
64 66 70 71 71 71 72 70 70 71 70 70 70 70 70 71 70 69 66 63 61 57 53 48 42 41 42 43 58 64 67 68 69 70 68 68 67 69 69 68 65 63 62 60 55 48 49 46 46 48 49 52 58 63 62 61 61 62 61 63 63 64 62
64 64 67 70 70 69 68 69 69 69 68 69 69 70 68 66 66 65 64 62 59 57 52 43 40 41 41 41 44 58 65 68 68 68 69 69 71 69 69 67 67 69 69 67 65 61 54 48 47 46 45 45 46 48 54 63 62 60 60 59 59 61 61
65 67 68 67 67 67 67 67 67 67 67 68 68 68 66 65 64 63 62 60 57 55 51 42 40 41 41 41 39 50 68 69 68 69 68 69 68 69 67 67 67 69 70 64 65 66 66 59 46 44 46 50 46 46 47 49 53 62 61 61 60 59 62
63 63 64 64 64 65 64 63 64 64 64 65 64 64 64 63 62 61 60 57 54 52 47 42 40 41 41 41 40 45 68 68 67 68 68 68 68 67 67 67 66 63 58 54 52 55 64 65 64 64 65 65 66 60 49 46 45 46 53 61 60 59 62
60 60 61 61 61 61 61 61 62 62 62 62 62 61 61 60 60 60 58 56 54 50 47 41 41 41 41 41 42 47 65 68 68 67 67 66 67 67 67 68 66 60 55 50 45 45 53 59 63 65 63 64 65 66 65 64 62 60 58 59 60 62 62
55 56 57 58 58 57 58 58 58 59 60 61 62 62 61 60 59 59 58 56 53 51 48 41 41 41 41 41 46 61 65 66 66 67 66 67 67 67 67 66 62 56 52 48 42 41 45 55 63 62 62 62 62 63 65 56 51 53 59 62 62 61 60
51 52 53 53 54 53 54 54 55 57 57 57 57 57 58 59 60 59 57 55 52 51 48 43 41 41 41 41 48 60 64 66 66 65 65 66 66 61 61 64 61 56 50 45 39 41 43 50 60 60 60 61 62 63 63 65 56 52 50 49 49 48 47
49 49 50 50 51 51 51 52 53 55 55 55 55 57 57 56 56 57 57 56 54 51 48 44 41 41 42 41 47 57 62 65 65 64 64 66 59 54 50 51 57 53 47 42 37 39 42 51 56 56 56 55 57 59 58 56 60 60 53 52 51 48 46
48 48 48 48 49 49 49 50 51 53 53 55 55 57 56 55 55 56 55 55 54 53 50 46 41 41 42 41 48 57 60 60 59 59 61 62 58 52 48 43 43 44 43 39 37 37 39 48 53 52 52 53 53 55 53 52 54 54 55 56 57 60 58
48 48 48 49 49 49 49 50 50 51 51 51 53 54 55 54 53 53 54 54 54 53 50 47 44 40 41 42 44 55 55 54 54 55 58 59 60 53 52 49 43 39 39 39 39 38 37 40 48 50 50 50 50 52 50 50 52 51 51 52 54 56 57
48 49 49 48 49 49 50 50 51 50 50 50 52 53 54 54 53 53 53 53 51 51 51 48 44 40 41 42 43 47 52 50 51 53 55 57 58 57 54 51 47 41 40 40 40 39 39 37 39 46 49 50 51 49 44 48 49 47 50 52 53 54 56
49 49 49 49 48 48 50 52 51 52 51 51 52 52 53 53 53 53 53 52 51 50 50 49 47 41 41 41 41 43 48 47 46 50 50 52 53 54 54 53 49 43 41 41 41 40 40 40 38 43 48 45 43 40 44 45 47 49 51 52 53 53 55
48 50 49 49 49 48 49 50 51 52 52 53 53 53 53 53 53 52 52 52 52 51 51 49 44 45 40 41 40 40 40 44 41 49 49 49 49 50 53 52 50 44 42 42 41 40 40 39 41 46 42 39 38 38 39 44 47 48 49 51 51 51 52
48 48 48 49 49 49 50 50 50 52 52 52 53 53 54 55 54 52 52 52 53 53 52 51 45 43 42 38 39 39 39 38 39 45 48 52 52 50 50 48 46 41 42 42 41 41 39 39 41 40 39 39 38 39 43 44 45 48 46 47 48 49 50

ECMWFFLT1_sfc_temp_045.txt.gz
Temp
63 63 64 64 64 64 64 64 64 65 66 67 67 67 68 68 67 67 67 67 66 65 65 63 63 64 64 65 64 64 64 64 64 62 61 61 61 60 61 62 62 63 65 60 62 60 57 55 56 60 62 63 63 67 67 68 68 65 64 64 65 64 63
65 64 64 64 63 64 63 63 64 65 66 67 68 68 68 68 68 68 68 67 64 64 65 64 65 65 64 64 63 63 63 63 63 63 63 61 61 60 59 59 60 61 61 62 62 61 57 56 55 56 59 63 64 62 65 66 66 65 65 66 66 65 63
64 64 64 63 63 63 62 63 63 63 64 65 67 68 68 69 68 68 68 67 64 65 65 65 65 66 65 65 64 63 64 63 62 64 63 62 62 62 61 60 59 59 60 60 59 60 60 60 57 58 59 60 59 61 62 63 64 64 66 66 65 66 63
64 63 62 62 62 62 62 62 61 62 63 65 66 68 67 68 68 68 68 67 64 66 66 65 65 65 64 65 65 64 64 64 63 63 62 62 62 62 61 61 60 61 59 57 59 60 58 57 58 58 59 61 60 59 61 62 64 65 66 65 65 63 62
64 64 62 62 62 62 62 61 60 61 62 64 65 65 66 67 67 67 68 66 65 65 64 64 64 65 65 64 63 63 64 63 63 63 62 62 62 62 61 61 60 61 60 60 60 60 60 60 61 59 59 61 61 61 66 62 65 65 65 65 65 63 62
65 64 63 62 62 62 61 61 60 61 61 63 64 65 65 66 66 67 66 65 65 64 64 64 65 66 64 63 63 64 63 63 62 62 62 62 62 62 61 61 61 62 61 61 62 61 60 62 62 60 60 63 56 59 63 62 62 64 66 64 64 63 62
64 64 64 63 63 63 63 62 62 62 63 64 65 66 67 67 67 67 67 66 66 65 64 64 64 64 64 64 63 63 63 63 63 62 62 62 62 62 63 62 62 61 61 62 62 62 62 61 60 61 59 60 61 61 63 63 63 64 62 64 64 63 62
65 64 64 65 64 63 64 64 64 64 65 66 67 67 67 67 66 66 66 65 65 65 65 64 64 63 63 64 64 64 63 63 63 62 62 62 63 62 62 62 62 61 61 61 63 63 64 63 62 61 61 57 57 58 59 62 62 62 63 62 65 63 61
66 66 66 65 65 65 65 65 66 66 66 66 67 67 67 67 66 66 66 66 66 66 65 65 64 63 63 63 63 63 63 65 62 61 61 62 62 63 62 62 62 61 61 62 63 63 64 64 63 61 63 63 58 55 55 56 58 60 66 62 62 62 61
65 66 66 66 66 66 66 66 66 66 66 67 67 67 67 67 67 67 66 66 66 66 65 64 64 64 63 63 63 62 62 63 62 62 61 62 62 62 62 62 62 61 62 63 64 64 64 64 64 63 64 63 61 57 53 53 54 56 62 64 58 60 62
67 67 66 67 67 67 66 65 66 66 66 67 68 68 66 66 65 68 65 65 66 65 65 65 65 64 64 63 62 62 63 62 61 61 61 61 60 61 61 61 62 62 63 63 63 64 64 64 64 64 62 61 62 61 55 55 53 56 57 60 61 59 60
67 67 68 68 67 67 66 66 66 66 67 66 66 66 66 65 64 66 66 65 65 65 65 65 64 64 63 62 62 62 62 62 61 60 60 61 60 61 60 61 61 62 63 63 64 64 64 64 64 64 61 63 61 62 59 56 55 58 63 59 60 64 62
68 69 68 67 68 68 67 67 66 66 66 66 65 65 65 65 65 66 65 65 65 65 66 65 65 63 62 62 62 61 61 62 61 60 60 61 63 62 61 61 62 62 62 63 63 64 63 64 64 63 63 62 60 60 60 60 58 58 59 61 60 62 63
68 69 68 68 68 68 67 67 67 66 65 65 66 64 65 65 65 66 66 66 66 64 66 65 65 63 62 61 61 62 62 62 62 60 60 60 62 63 62 62 62 62 63 64 63 63 63 64 64 63 63 63 62 60 62 59 58 58 58 60 61 62 63
68 68 67 68 68 67 67 67 65 66 66 66 65 66 66 65 66 65 66 65 65 65 65 65 65 65 64 62 61 63 62 62 61 60 60 60 61 64 63 63 63 62 64 64 62 65 65 64 66 65 64 63 63 60 64 62 58 57 57 57 57 62 62
68 67 67 67 67 68 67 66 67 66 66 65 64 65 65 65 65 64 64 65 65 64 65 64 64 65 64 63 63 62 63 62 61 61 61 61 62 63 63 62 62 63 65 63 62 65 64 65 67 67 66 64 63 62 65 66 61 57 58 57 59 61 60
67 66 66 66 67 67 67 66 67 67 67 64 65 66 66 64 63 65 65 64 65 64 64 64 64 65 65 65 64 64 63 63 62 62 62 63 64 63 62 61 62 63 63 63 62 62 63 63 64 63 63 62 63 63 63 62 65 59 55 59 59 63 62
65 65 65 66 66 67 66 67 67 67 65 65 66 66 65 63 65 66 66 65 65 65 65 64 63 63 64 64 65 64 64 63 63 62 63 63 65 63 62 62 62 62 61 61 60 62 63 62 66 63 63 61 64 62 64 64 63 63 61 60 59 61 62
64 65 66 66 67 66 66 66 66 66 66 66 66 65 65 65 68 66 65 64 63 62 62 61 62 63 63 64 64 63 64 64 64 64 63 64 64 64 63 62 62 61 61 62 61 60 62 63 65 63 63 63 65 61 61 61 62 62 63 61 60 60 58
64 64 65 66 66 66 66 66 67 66 66 67 65 64 65 65 63 63 63 62 61 59 59 59 59 60 61 62 62 63 62 64 64 62 64 66 64 63 64 64 62 63 63 61 60 60 60 61 61 61 62 59 65 61 62 62 62 61 59 59 58 58 60
63 64 65 66 66 66 66 66 65 65 66 65 64 64 64 63 62 62 60 58 57 56 55 55 53 55 60 60 61 61 60 61 61 62 64 64 63 63 62 62 62 62 62 61 60 59 59 59 59 58 57 58 59 60 60 60 62 60 59 59 59 56 57
63 64 66 66 65 65 65 64 65 66 65 64 64 65 64 63 61 59 58 56 55 54 52 50 50 49 52 59 62 61 61 62 64 64 64 63 63 63 61 61 61 60 61 59 56 57 59 59 60 59 57 58 58 58 57 58 58 56 56 58 58 57 57
60 60 62 64 64 64 64 64 65 65 64 64 64 64 63 62 60 57 55 54 52 51 49 48 46 45 45 51 57 62 61 60 60 62 63 62 61 61 62 60 60 59 56 55 53 51 51 54 57 60 59 58 57 58 57 57 56 56 57 56 55 56 56
60 59 59 59 62 64 63 64 64 63 63 62 61 61 61 60 58 56 54 52 50 48 46 45 42 40 42 43 55 58 59 62 59 60 62 62 60 60 59 60 58 59 58 57 53 49 48 48 49 50 53 56 59 60 57 56 56 55 53 54 54 54 53
59 60 60 60 59 62 63 63 63 61 60 60 60 60 59 57 56 54 52 51 49 48 45 43 40 41 41 41 45 54 59 59 61 59 59 60 61 60 60 59 59 59 57 57 57 54 50 46 45 46 46 48 49 50 53 57 54 53 53 54 53 55 54
59 59 59 59 60 61 62 62 61 60 59 59 59 58 56 55 53 52 51 49 47 47 46 42 41 42 42 42 41 52 62 60 60 60 60 62 62 60 59 57 55 54 55 56 56 56 55 53 47 44 45 45 46 49 50 49 52 57 54 55 58 53 55
58 58 58 58 58 59 59 59 58 59 59 58 57 55 54 53 52 50 49 48 46 46 44 42 41 42 42 43 42 49 60 59 61 61 62 62 62 60 58 56 53 51 50 49 49 52 56 58 57 57 58 58 57 52 46 46 46 46 49 54 55 58 52
56 56 57 57 57 57 57 57 57 57 57 56 55 53 52 51 50 49 49 48 47 45 43 41 41 41 42 44 47 51 57 60 60 60 60 60 59 58 56 53 51 49 47 47 46 46 53 56 57 57 56 57 57 58 57 56 55 55 55 55 53 54 54
51 52 52 52 52 53 54 55 56 56 56 55 55 54 52 51 49 48 48 47 46 45 44 41 41 42 43 45 49 56 56 59 59 57 55 55 56 56 54 51 49 47 47 46 45 44 48 54 54 54 53 53 54 55 54 52 46 47 50 51 52 52 53
49 49 50 50 50 50 50 52 53 54 54 53 52 52 51 51 51 49 48 47 46 45 45 42 41 42 43 45 50 56 57 57 55 52 50 50 50 51 51 50 48 47 45 45 43 43 45 49 52 52 51 51 52 52 50 52 49 47 46 46 45 45 46
48 48 48 48 48 49 49 49 49 52 52 52 51 51 51 51 51 49 48 46 47 46 45 43 42 43 44 45 49 53 54 55 53 51 49 49 48 47 49 50 49 46 45 44 41 42 44 49 50 49 49 49 50 49 48 48 51 51 47 47 47 47 48
48 48 48 48 49 49 48 48 49 50 50 51 50 50 50 50 49 49 49 48 49 46 45 45 42 42 43 44 49 51 52 53 52 50 49 48 47 45 44 45 46 45 45 41 39 40 41 46 48 47 46 46 45 45 44 44 45 46 47 48 50 51 51
48 47 47 48 49 49 49 49 49 49 49 49 48 48 49 50 49 47 48 48 47 46 45 44 43 42 43 43 45 49 49 49 49 49 50 49 47 46 45 44 42 39 39 39 39 38 37 39 45 44 44 44 44 44 42 43 44 43 44 45 45 47 48
47 48 48 47 48 48 49 49 49 49 49 49 49 48 48 49 48 47 47 48 47 47 46 44 43 41 42 42 43 45 47 46 45 47 47 47 47 45 44 43 43 41 39 39 39 39 38 38 39 41 41 45 44 41 41 41 42 44 42 43 44 45 47
48 48 48 48 47 47 48 49 49 50 49 49 49 48 48 47 46 46 47 47 47 46 47 47 46 42 41 41 41 43 46 45 45 47 47 48 48 47 46 45 43 41 40 40 40 40 41 41 38 40 40 41 38 39 40 41 41 41 43 44 43 43 45
46 48 47 47 47 46 47 47 48 48 49 50 49 49 48 47 46 45 46 47 47 46 46 46 44 44 41 41 40 40 40 42 42 48 49 48 47 48 48 47 46 43 39 40 39 39 39 39 41 42 41 39 38 38 38 39 39 42 41 42 43 44 44
47 46 47 47 46 45 45 46 46 46 47 47 47 47 48 47 47 46 45 46 47 46 46 45 43 42 43 40 40 40 39 38 39 46 48 48 47 46 45 43 43 39 40 39 39 39 39 40 40 39 38 39 38 38 39 40 40 42 41 40 41 42 44

ECMWFFLT1_sfc_temp_048.txt.gz
Temp
63 63 64 64 65 65 64 63 63 64 65 65 65 65 65 65 66 65 65 65 64 64 64 62 62 62 62 64 64 64 63 63 62 61 60 61 61 60 59 59 59 60 62 58 60 58 56 54 55 59 60 60 61 62 65 65 64 62 61 60 61 60 59
63 63 64 65 64 64 64 64 64 64 64 65 65 65 66 66 66 66 65 64 64 64 64 62 62 63 63 62 62 62 62 62 62 62 62 61 61 59 59 57 59 59 59 59 60 58 53 54 53 55 56 58 59 61 63 63 63 62 62 61 62 61 60
62 62 63 63 64 64 63 63 63 63 63 64 64 65 65 66 66 66 65 64 63 64 64 63 63 62 62 62 63 63 63 62 62 62 62 61 61 61 61 59 58 57 57 58 57 56 58 56 56 55 55 56 56 57 60 60 61 61 62 61 61 61 59
62 62 62 62 63 63 62 62 63 63 62 63 63 64 65 65 65 64 64 63 63 64 64 63 62 62 62 62 62 63 62 62 61 62 61 61 60 60 59 60 60 61 59 57 57 58 57 54 54 55 55 58 59 57 58 60 61 62 62 60 60 59 58
62 63 62 62 63 62 62 62 62 61 61 62 63 63 64 64 64 64 63 63 63 63 63 63 63 63 63 63 62 62 62 62 62 62 61 61 60 60 59 60 60 60 59 59 59 59 58 57 58 56 56 57 59 58 61 57 60 62 61 61 61 59 58
63 63 63 63 63 62 61 61 60 61 61 61 62 63 63 64 63 62 62 62 63 63 63 63 63 63 63 62 62 62 62 61 62 62 61 61 61 60 60 59 59 59 60 59 61 60 58 59 59 57 57 59 56 57 59 60 56 59 60 60 60 59 58
63 63 62 62 62 62 61 61 61 61 61 62 62 63 64 63 63 63 63 63 63 63 63 63 63 63 62 62 62 62 62 62 61 61 61 61 61 61 60 59 60 58 58 60 61 61 60 59 58 60 58 57 59 60 59 58 59 58 58 59 59 58 58
63 63 62 63 62 61 61 62 61 61 61 62 63 64 63 62 63 63 63 63 62 62 63 62 63 62 62 62 62 62 62 61 61 61 61 61 61 61 60 60 60 59 59 59 61 62 63 63 61 60 60 57 55 56 57 58 59 58 58 57 60 59 58
64 63 62 62 62 62 62 62 61 61 62 63 63 64 63 64 63 63 63 63 63 63 62 62 62 62 61 61 61 62 62 63 61 60 60 61 61 61 61 60 60 60 60 60 61 62 63 63 62 61 61 61 57 54 54 55 55 55 60 57 58 59 57
63 62 62 61 62 62 62 62 62 62 63 63 64 64 63 64 64 64 63 63 63 63 62 62 62 61 61 61 61 61 62 61 61 61 60 61 61 61 60 60 60 60 59 61 61 62 62 61 62 62 63 62 60 57 52 52 51 50 57 57 55 56 58
63 63 63 62 62 62 62 62 62 62 63 64 65 65 64 64 64 65 63 63 63 63 63 62 61 61 61 61 61 61 61 61 60 60 60 61 60 61 60 60 60 59 60 60 61 61 61 61 61 63 63 63 62 60 55 55 51 52 55 56 54 54 56
63 63 63 63 62 62 62 62 62 63 63 63 64 64 64 63 64 64 64 63 63 63 62 62 61 61 60 60 60 60 60 60 60 59 59 60 60 61 60 60 58 59 59 60 61 61 61 61 61 61 62 60 60 58 58 54 52 53 58 56 55 58 58
63 64 64 63 63 63 63 63 63 63 63 63 63 64 63 63 63 63 63 63 62 62 62 61 61 60 60 60 60 60 60 60 60 59 59 60 61 60 60 60 59 59 59 60 60 61 60 61 61 60 60 60 58 57 56 57 56 56 56 58 57 58 58
61 61 63 65 64 64 63 63 64 64 63 63 63 63 63 63 63 64 63 63 62 62 62 61 61 60 60 59 59 60 59 60 60 59 59 59 60 60 60 60 60 59 59 60 60 61 61 60 61 60 60 58 59 57 59 54 54 53 57 54 54 57 57
62 61 61 63 65 64 64 64 63 62 63 62 63 63 63 63 64 64 63 62 62 62 62 61 60 60 60 59 59 60 60 60 59 58 58 59 58 60 59 59 60 59 60 61 60 62 62 61 62 61 60 61 58 57 59 59 54 54 55 54 54 55 55
62 62 61 61 64 65 64 63 63 63 63 61 61 63 63 63 64 63 63 62 62 62 62 61 60 60 60 60 59 60 60 60 59 58 58 59 59 59 59 60 60 60 61 60 60 61 61 62 64 65 63 61 60 58 60 61 57 55 56 53 53 55 55
62 61 61 61 64 65 64 63 64 64 63 61 62 61 62 62 61 62 62 62 62 62 62 61 61 61 61 60 60 60 60 60 59 59 59 59 60 60 60 60 60 60 60 60 60 60 60 60 61 63 62 60 59 58 58 58 62 59 55 54 53 57 56
61 60 60 60 62 64 63 63 63 63 62 62 62 61 60 60 61 61 62 62 62 61 62 62 61 61 61 61 61 60 60 60 59 59 60 60 61 61 60 60 60 60 60 60 58 59 59 59 62 61 61 60 60 58 58 59 59 59 57 57 55 54 55
61 61 61 61 61 62 63 63 62 61 62 62 61 61 61 62 63 62 61 62 61 60 59 61 62 61 61 61 61 61 61 60 60 60 60 60 61 61 61 61 60 60 60 60 59 58 58 58 59 58 59 60 60 57 57 56 57 58 60 59 56 54 53
60 61 60 61 61 61 62 62 62 62 62 62 61 60 60 60 59 60 58 58 57 57 57 57 56 58 59 60 61 61 60 60 60 59 60 60 61 61 61 61 61 61 61 59 59 59 57 57 59 58 58 56 60 57 57 57 58 57 57 56 54 55 56
60 60 61 61 61 61 63 62 61 61 62 61 60 59 59 59 57 57 56 55 54 54 54 53 52 54 57 59 59 59 60 60 59 59 58 59 60 61 61 61 61 61 60 59 60 58 57 57 57 56 55 55 57 57 57 56 56 55 55 55 55 55 52
59 60 61 62 61 61 63 63 62 62 60 59 60 59 59 58 56 55 54 53 52 51 51 49 49 48 53 57 58 58 59 60 60 59 59 59 59 60 60 58 58 58 61 61 56 57 57 58 58 56 55 53 55 56 55 54 56 55 54 55 54 54 52
59 60 60 61 61 61 63 63 62 60 59 59 59 58 57 57 56 54 52 51 50 49 48 47 46 45 48 54 56 60 58 59 60 59 59 58 58 57 57 56 57 59 57 56 54 52 51 53 57 58 56 56 55 56 55 54 54 53 55 53 53 53 52
58 59 60 60 60 61 61 62 61 60 59 58 58 57 56 55 54 53 52 51 49 47 46 45 43 42 43 50 56 56 57 56 57 59 59 59 57 55 54 55 54 57 55 54 52 49 49 49 49 51 52 54 57 57 55 54 53 52 51 52 49 52 52
58 58 58 59 60 59 59 59 59 59 58 57 56 55 54 53 51 51 50 49 48 47 45 43 40 43 43 46 52 56 57 58 57 57 57 57 56 55 54 54 53 55 55 55 53 52 50 45 45 45 45 44 44 44 47 52 51 50 50 52 51 51 50
58 59 58 58 59 58 58 57 58 58 57 56 54 53 51 50 49 49 49 48 46 45 44 42 40 43 44 45 50 54 58 57 58 56 56 56 55 54 53 52 51 50 52 56 55 52 52 51 48 47 48 49 47 45 43 43 46 52 50 51 51 50 51
58 58 58 57 57 57 57 57 56 56 56 54 52 50 49 48 48 47 47 47 45 44 43 42 41 43 45 46 49 52 58 57 57 57 56 56 54 52 51 51 50 49 48 49 49 52 55 55 55 55 55 54 53 50 47 46 45 46 49 52 51 51 50
52 55 57 56 56 56 56 55 54 54 54 53 51 49 49 47 47 46 45 46 46 44 43 41 41 43 45 47 49 51 56 56 55 54 53 51 50 50 49 49 48 47 48 47 47 49 52 52 53 53 53 53 52 50 49 49 49 49 49 50 49 49 49
49 49 52 53 53 53 52 52 51 50 50 50 50 49 48 47 46 45 45 45 46 44 44 41 41 43 46 47 49 54 53 52 51 50 50 49 49 48 48 48 48 47 47 47 45 44 47 51 52 51 50 49 49 48 48 48 44 45 47 47 48 47 48
48 49 49 49 49 50 50 50 49 50 48 48 49 48 47 46 46 45 45 45 44 43 43 42 41 44 46 47 50 52 51 50 48 47 47 48 48 48 48 47 47 47 46 45 42 42 44 48 50 49 48 47 47 47 45 47 46 44 43 44 43 43 44
47 48 48 48 48 48 48 48 48 49 47 47 47 48 47 47 46 46 45 44 45 43 43 42 41 43 45 47 50 52 50 49 47 46 46 46 46 47 49 51 50 46 45 44 41 41 43 48 48 47 47 47 46 45 45 45 47 46 46 45 44 44 45
47 47 47 47 48 48 48 48 48 48 48 48 48 48 48 47 46 46 45 45 48 45 44 44 41 41 44 46 50 52 51 49 47 46 45 45 45 45 44 44 45 45 44 41 39 40 42 46 46 45 44 45 44 44 41 41 43 44 45 46 47 47 48
47 47 46 47 47 48 49 48 48 47 47 47 45 45 47 47 45 45 46 46 46 46 45 44 42 41 42 43 47 53 52 50 47 46 47 47 45 44 43 43 42 39 39 39 38 38 39 41 44 43 44 44 44 43 41 40 42 41 41 41 42 43 44
46 47 47 46 47 47 48 48 48 47 46 46 45 44 44 45 45 45 46 46 46 46 46 45 44 40 41 42 43 47 51 50 49 48 46 45 45 44 43 42 41 40 39 39 39 38 39 39 41 43 42 43 42 42 40 40 41 42 40 41 42 42 44
46 46 47 47 46 45 46 48 48 47 46 45 45 44 44 43 43 43 44 45 45 45 46 45 44 42 40 40 40 43 47 47 48 48 46 45 45 44 43 41 42 39 38 38 38 39 39 39 40 43 40 38 38 38 40 40 39 40 41 42 42 43 45
46 46 46 46 45 45 45 46 46 47 47 46 45 44 44 44 43 42 43 43 43 44 44 44 42 42 40 39 39 40 41 44 43 48 47 45 44 43 44 43 43 40 38 38 39 39 39 40 41 39 38 38 37 37 39 41 41 43 43 43 43 44 44
46 45 45 45 45 44 44 45 45 45 46 46 45 44 44 44 43 43 42 42 43 43 43 43 42 41 41 39 39 39 39 40 42 45 47 45 44 43 43 43 41 38 39 39 40 40 39 40 40 39 39 39 39 39 42 42 43 42 42 41 42 41 41